Time,TemperatureF,DewpointF,PressureIn,WindDirection,WindDirectionDegrees,WindSpeedMPH,WindSpeedGustMPH,Humidity,HourlyPrecipIn,Conditions,Clouds,dailyrainin,SoftwareType,DateUTC
2013-09-12 00:00:00,74.4,68.6,29.90,WNW,300,0.0,1.0,82,0.00,,---,0.00,VWS V14.01,2013-09-12 05:00:00,
2013-09-12 00:01:00,74.3,68.8,29.90,WNW,300,0.0,0.0,83,0.00,,---,0.00,VWS V14.01,2013-09-12 05:01:00,
2013-09-12 00:03:00,74.2,68.7,29.90,WNW,300,0.0,0.0,83,0.00,,---,0.00,VWS V14.01,2013-09-12 05:03:00,
2013-09-12 00:04:00,74.1,68.6,29.90,WNW,300,0.0,0.0,83,0.00,,---,0.00,VWS V14.01,2013-09-12 05:04:00,
2013-09-12 00:05:00,74.1,68.6,29.90,WNW,300,0.0,0.0,83,0.00,,---,0.00,VWS V14.01,2013-09-12 05:05:00,
2013-09-12 00:06:00,74.0,68.5,29.90,WNW,300,0.0,0.0,83,0.00,,---,0.00,VWS V14.01,2013-09-12 05:06:00,
2013-09-12 00:07:00,74.0,68.5,29.90,WNW,300,0.0,0.0,83,0.00,,---,0.00,VWS V14.01,2013-09-12 05:07:00,
2013-09-12 00:08:00,73.9,68.8,29.90,WNW,300,0.0,0.0,84,0.00,,---,0.00,VWS V14.01,2013-09-12 05:08:00,
2013-09-12 00:10:00,73.8,68.7,29.91,WNW,300,0.0,0.0,84,0.00,,---,0.00,VWS V14.01,2013-09-12 05:10:00,
2013-09-12 00:11:00,73.8,68.7,29.91,WNW,300,1.0,1.0,84,0.00,,---,0.00,VWS V14.01,2013-09-12 05:11:00,
2013-09-12 00:12:00,73.7,68.6,29.91,WNW,300,2.0,2.0,84,0.00,,---,0.00,VWS V14.01,2013-09-12 05:12:00,
2013-09-12 00:13:00,73.7,68.6,29.91,WNW,300,2.0,3.0,84,0.00,,---,0.00,VWS V14.01,2013-09-12 05:13:00,
2013-09-12 00:15:00,73.7,68.6,29.91,WNW,300,1.0,3.0,84,0.00,,---,0.00,VWS V14.01,2013-09-12 05:15:00,
2013-09-12 00:16:00,73.6,68.5,29.91,WNW,300,0.0,3.0,84,0.00,,---,0.00,VWS V14.01,2013-09-12 05:16:00,
2013-09-12 00:17:00,73.6,68.5,29.90,WNW,300,0.0,3.0,84,0.00,,---,0.00,VWS V14.01,2013-09-12 05:17:00,
2013-09-12 00:18:00,73.6,68.5,29.91,WNW,300,1.0,3.0,84,0.00,,---,0.00,VWS V14.01,2013-09-12 05:18:00,
2013-09-12 00:21:00,73.6,68.5,29.91,WNW,300,0.0,3.0,84,0.00,,---,0.00,VWS V14.01,2013-09-12 05:21:00,
2013-09-12 00:22:00,73.6,68.5,29.91,WNW,300,0.0,3.0,84,0.00,,---,0.00,VWS V14.01,2013-09-12 05:22:00,
2013-09-12 00:23:00,73.5,68.4,29.90,WNW,300,0.0,3.0,84,0.00,,---,0.00,VWS V14.01,2013-09-12 05:23:00,
2013-09-12 00:26:00,73.5,68.4,29.90,WNW,300,0.0,3.0,84,0.00,,---,0.00,VWS V14.01,2013-09-12 05:26:00,
2013-09-12 00:27:00,73.6,68.5,29.90,WNW,300,0.0,3.0,84,0.00,,---,0.00,VWS V14.01,2013-09-12 05:27:00,
2013-09-12 00:28:00,73.5,68.4,29.90,WNW,300,0.0,3.0,84,0.00,,---,0.00,VWS V14.01,2013-09-12 05:28:00,
2013-09-12 00:30:00,73.5,68.4,29.90,WNW,300,0.0,3.0,84,0.00,,---,0.00,VWS V14.01,2013-09-12 05:30:00,
2013-09-12 00:31:00,73.6,68.5,29.90,WNW,300,0.0,0.0,84,0.00,,---,0.00,VWS V14.01,2013-09-12 05:31:00,
2013-09-12 00:32:00,73.6,68.5,29.90,WNW,300,0.0,0.0,84,0.00,,---,0.00,VWS V14.01,2013-09-12 05:32:00,
2013-09-12 00:34:00,73.6,68.5,29.90,WNW,300,0.0,0.0,84,0.00,,---,0.00,VWS V14.01,2013-09-12 05:34:00,
2013-09-12 00:37:00,73.6,68.5,29.90,WNW,300,0.0,0.0,84,0.00,,---,0.00,VWS V14.01,2013-09-12 05:37:00,
2013-09-12 00:38:00,73.6,68.5,29.90,WNW,300,0.0,0.0,84,0.00,,---,0.00,VWS V14.01,2013-09-12 05:38:00,
2013-09-12 00:39:00,73.6,68.5,29.90,WNW,300,0.0,0.0,84,0.00,,---,0.00,VWS V14.01,2013-09-12 05:39:00,
2013-09-12 00:42:00,73.6,68.5,29.90,WNW,300,0.0,0.0,84,0.00,,---,0.00,VWS V14.01,2013-09-12 05:42:00,
2013-09-12 00:43:00,73.7,68.6,29.90,WNW,300,0.0,0.0,84,0.00,,---,0.00,VWS V14.01,2013-09-12 05:43:00,
2013-09-12 00:44:00,73.7,68.6,29.90,WNW,300,0.0,0.0,84,0.00,,---,0.00,VWS V14.01,2013-09-12 05:44:00,
2013-09-12 00:47:00,73.7,68.6,29.89,WNW,300,0.0,0.0,84,0.00,,---,0.00,VWS V14.01,2013-09-12 05:47:00,
2013-09-12 00:48:00,73.7,68.6,29.89,WNW,300,0.0,0.0,84,0.00,,---,0.00,VWS V14.01,2013-09-12 05:48:00,
2013-09-12 00:49:00,73.7,68.6,29.89,WNW,300,0.0,0.0,84,0.00,,---,0.00,VWS V14.01,2013-09-12 05:49:00,
2013-09-12 00:52:00,73.8,68.7,29.89,WNW,300,0.0,0.0,84,0.00,,---,0.00,VWS V14.01,2013-09-12 05:52:00,
2013-09-12 00:53:00,73.8,68.7,29.89,WNW,300,0.0,0.0,84,0.00,,---,0.00,VWS V14.01,2013-09-12 05:53:00,
2013-09-12 00:54:00,73.8,68.7,29.89,WNW,300,0.0,0.0,84,0.00,,---,0.00,VWS V14.01,2013-09-12 05:54:00,
2013-09-12 00:55:00,73.8,68.7,29.89,WNW,300,0.0,0.0,84,0.00,,---,0.00,VWS V14.01,2013-09-12 05:55:00,
2013-09-12 00:58:00,73.8,69.0,29.89,WNW,300,0.0,0.0,85,0.00,,---,0.00,VWS V14.01,2013-09-12 05:58:00,
2013-09-12 00:59:00,73.8,69.0,29.89,WNW,300,0.0,0.0,85,0.00,,---,0.00,VWS V14.01,2013-09-12 05:59:00,
2013-09-12 01:00:00,73.8,69.0,29.90,WNW,300,0.0,0.0,85,0.00,,---,0.00,VWS V14.01,2013-09-12 06:00:00,
2013-09-12 01:03:00,73.8,69.0,29.89,WNW,300,0.0,0.0,85,0.00,,---,0.00,VWS V14.01,2013-09-12 06:03:00,
2013-09-12 01:04:00,73.8,68.7,29.90,WNW,300,0.0,0.0,84,0.00,,---,0.00,VWS V14.01,2013-09-12 06:04:00,
2013-09-12 01:05:00,73.7,68.6,29.90,WNW,300,0.0,0.0,84,0.00,,---,0.00,VWS V14.01,2013-09-12 06:05:00,
2013-09-12 01:08:00,73.7,68.6,29.90,WNW,300,0.0,0.0,84,0.00,,---,0.00,VWS V14.01,2013-09-12 06:08:00,
2013-09-12 01:09:00,73.7,68.6,29.90,WNW,300,0.0,0.0,84,0.00,,---,0.00,VWS V14.01,2013-09-12 06:09:00,
2013-09-12 01:10:00,73.7,68.6,29.90,WNW,300,0.0,0.0,84,0.00,,---,0.00,VWS V14.01,2013-09-12 06:10:00,
2013-09-12 01:11:00,73.7,68.6,29.90,WNW,300,0.0,0.0,84,0.00,,---,0.00,VWS V14.01,2013-09-12 06:11:00,
2013-09-12 01:13:00,73.7,68.6,29.90,WNW,300,2.0,2.0,84,0.00,,---,0.00,VWS V14.01,2013-09-12 06:13:00,
2013-09-12 01:14:00,73.8,68.7,29.90,WNW,300,0.0,3.0,84,0.00,,---,0.00,VWS V14.01,2013-09-12 06:14:00,
2013-09-12 01:15:00,73.8,68.7,29.90,WNW,300,1.0,3.0,84,0.00,,---,0.00,VWS V14.01,2013-09-12 06:15:00,
2013-09-12 01:16:00,73.8,68.7,29.90,WNW,300,0.0,3.0,84,0.00,,---,0.00,VWS V14.01,2013-09-12 06:16:00,
2013-09-12 01:18:00,73.8,68.7,29.90,WNW,300,1.0,3.0,84,0.00,,---,0.00,VWS V14.01,2013-09-12 06:18:00,
2013-09-12 01:19:00,73.8,69.0,29.90,WNW,300,0.0,3.0,85,0.00,,---,0.00,VWS V14.01,2013-09-12 06:19:00,
2013-09-12 01:20:00,73.8,69.0,29.90,WNW,300,0.0,3.0,85,0.00,,---,0.00,VWS V14.01,2013-09-12 06:20:00,
2013-09-12 01:21:00,73.8,69.0,29.90,WNW,299,1.0,3.0,85,0.00,,---,0.00,VWS V14.01,2013-09-12 06:21:00,
2013-09-12 01:22:00,73.7,68.9,29.90,WNW,299,2.0,3.0,85,0.00,,---,0.00,VWS V14.01,2013-09-12 06:22:00,
2013-09-12 01:23:00,73.6,68.8,29.90,WNW,299,2.0,3.0,85,0.00,,---,0.00,VWS V14.01,2013-09-12 06:23:00,
2013-09-12 01:24:00,73.5,69.1,29.91,WNW,299,1.0,3.0,86,0.00,,---,0.00,VWS V14.01,2013-09-12 06:24:00,
2013-09-12 01:25:00,73.5,69.1,29.91,WNW,299,3.0,3.0,86,0.00,,---,0.00,VWS V14.01,2013-09-12 06:25:00,
2013-09-12 01:26:00,73.4,69.0,29.91,WNW,299,3.0,4.0,86,0.00,,---,0.00,VWS V14.01,2013-09-12 06:26:00,
2013-09-12 01:27:00,73.2,69.1,29.91,WNW,301,3.0,4.0,87,0.00,,---,0.00,VWS V14.01,2013-09-12 06:27:00,
2013-09-12 01:28:00,73.2,69.1,29.91,WNW,299,4.0,4.0,87,0.00,,---,0.00,VWS V14.01,2013-09-12 06:28:00,
2013-09-12 01:29:00,73.1,69.0,29.92,WNW,286,5.0,5.0,87,0.00,,---,0.00,VWS V14.01,2013-09-12 06:29:00,
2013-09-12 01:30:00,73.0,68.9,29.92,WNW,300,3.0,5.0,87,0.00,,---,0.00,VWS V14.01,2013-09-12 06:30:00,
2013-09-12 01:31:00,73.0,68.9,29.92,WNW,296,3.0,5.0,87,0.00,,---,0.00,VWS V14.01,2013-09-12 06:31:00,
2013-09-12 01:33:00,72.9,68.8,29.92,WNW,294,4.0,6.0,87,0.00,,---,0.00,VWS V14.01,2013-09-12 06:33:00,
2013-09-12 01:34:00,72.9,68.8,29.92,WNW,296,2.0,6.0,87,0.00,,---,0.00,VWS V14.01,2013-09-12 06:34:00,
2013-09-12 01:35:00,72.9,68.8,29.92,WNW,298,4.0,6.0,87,0.00,,---,0.00,VWS V14.01,2013-09-12 06:35:00,
2013-09-12 01:37:00,72.9,68.8,29.91,NW,304,4.0,6.0,87,0.00,,---,0.00,VWS V14.01,2013-09-12 06:37:00,
2013-09-12 01:38:00,73.0,68.9,29.91,NW,305,3.0,6.0,87,0.00,,---,0.00,VWS V14.01,2013-09-12 06:38:00,
2013-09-12 01:39:00,73.0,68.9,29.92,NW,311,2.0,6.0,87,0.00,,---,0.00,VWS V14.01,2013-09-12 06:39:00,
2013-09-12 01:42:00,73.1,69.0,29.92,WNW,302,1.0,7.0,87,0.00,,---,0.00,VWS V14.01,2013-09-12 06:42:00,
2013-09-12 01:43:00,73.1,69.0,29.92,NW,314,5.0,7.0,87,0.00,,---,0.00,VWS V14.01,2013-09-12 06:43:00,
2013-09-12 01:44:00,73.1,69.0,29.92,WNW,297,1.0,7.0,87,0.00,,---,0.00,VWS V14.01,2013-09-12 06:44:00,
2013-09-12 01:45:00,73.1,69.0,29.92,NW,313,1.0,7.0,87,0.00,,---,0.00,VWS V14.01,2013-09-12 06:45:00,
2013-09-12 01:48:00,73.2,69.1,29.92,WNW,296,6.0,8.0,87,0.00,,---,0.00,VWS V14.01,2013-09-12 06:48:00,
2013-09-12 01:49:00,73.3,69.2,29.92,West,281,4.0,10.0,87,0.00,,---,0.00,VWS V14.01,2013-09-12 06:49:00,
2013-09-12 01:50:00,73.4,69.0,29.92,NNW,333,4.0,10.0,86,0.00,,---,0.00,VWS V14.01,2013-09-12 06:50:00,
2013-09-12 01:53:00,73.6,69.2,29.92,NNW,333,3.0,13.0,86,0.00,,---,0.00,VWS V14.01,2013-09-12 06:53:00,
2013-09-12 01:54:00,73.7,69.3,29.92,NW,319,3.0,13.0,86,0.00,,---,0.00,VWS V14.01,2013-09-12 06:54:00,
2013-09-12 01:55:00,73.7,69.3,29.92,NNW,330,6.0,13.0,86,0.00,,---,0.00,VWS V14.01,2013-09-12 06:55:00,
2013-09-12 01:58:00,73.9,69.1,29.92,NW,307,3.0,17.0,85,0.00,,---,0.00,VWS V14.01,2013-09-12 06:58:00,
2013-09-12 01:59:00,73.9,69.1,29.92,NNW,344,3.0,17.0,85,0.00,,---,0.00,VWS V14.01,2013-09-12 06:59:00,
2013-09-12 02:00:00,73.9,69.1,29.92,NNW,332,6.0,17.0,85,0.00,,---,0.00,VWS V14.01,2013-09-12 07:00:00,
2013-09-12 02:01:00,73.9,69.1,29.92,North,355,3.0,6.0,85,0.00,,---,0.00,VWS V14.01,2013-09-12 07:01:00,
2013-09-12 02:03:00,73.9,68.8,29.91,WNW,300,5.0,11.0,84,0.00,,---,0.00,VWS V14.01,2013-09-12 07:03:00,
2013-09-12 02:04:00,73.9,68.8,29.92,West,281,3.0,11.0,84,0.00,,---,0.00,VWS V14.01,2013-09-12 07:04:00,
2013-09-12 02:05:00,73.8,68.7,29.91,WNW,296,5.0,11.0,84,0.00,,---,0.00,VWS V14.01,2013-09-12 07:05:00,
2013-09-12 02:06:00,73.8,68.7,29.91,North,355,6.0,11.0,84,0.00,,---,0.00,VWS V14.01,2013-09-12 07:06:00,
2013-09-12 02:08:00,73.7,68.6,29.92,NE,34,3.0,11.0,84,0.00,,---,0.00,VWS V14.01,2013-09-12 07:08:00,
2013-09-12 02:09:00,73.6,68.5,29.92,WNW,302,9.0,11.0,84,0.00,,---,0.00,VWS V14.01,2013-09-12 07:09:00,
2013-09-12 02:10:00,73.6,68.5,29.92,NNW,338,3.0,11.0,84,0.00,,---,0.00,VWS V14.01,2013-09-12 07:10:00,
2013-09-12 02:11:00,73.6,68.5,29.91,NW,318,10.0,11.0,84,0.00,,---,0.00,VWS V14.01,2013-09-12 07:11:00,
2013-09-12 02:14:00,73.4,68.6,29.91,WNW,298,4.0,11.0,85,0.00,,---,0.00,VWS V14.01,2013-09-12 07:14:00,
2013-09-12 02:15:00,73.3,68.5,29.91,WNW,300,2.0,11.0,85,0.00,,---,0.00,VWS V14.01,2013-09-12 07:15:00,
2013-09-12 02:16:00,73.3,68.5,29.91,NW,319,3.0,11.0,85,0.00,,---,0.00,VWS V14.01,2013-09-12 07:16:00,
2013-09-12 02:19:00,73.1,68.3,29.91,WNW,298,1.0,11.0,85,0.00,,---,0.00,VWS V14.01,2013-09-12 07:19:00,
2013-09-12 02:21:00,73.0,68.2,29.91,WNW,296,2.0,11.0,85,0.00,,---,0.00,VWS V14.01,2013-09-12 07:21:00,
2013-09-12 02:22:00,72.9,68.1,29.91,WNW,298,0.0,11.0,85,0.00,,---,0.00,VWS V14.01,2013-09-12 07:22:00,
2013-09-12 02:24:00,72.8,68.0,29.91,WNW,301,4.0,11.0,85,0.00,,---,0.00,VWS V14.01,2013-09-12 07:24:00,
2013-09-12 02:26:00,72.7,68.3,29.90,NW,314,1.0,11.0,86,0.00,,---,0.00,VWS V14.01,2013-09-12 07:26:00,
2013-09-12 02:27:00,72.6,68.2,29.90,WNW,301,3.0,11.0,86,0.00,,---,0.00,VWS V14.01,2013-09-12 07:27:00,
2013-09-12 02:29:00,72.6,68.2,29.90,WNW,302,4.0,11.0,86,0.00,,---,0.00,VWS V14.01,2013-09-12 07:29:00,
2013-09-12 02:30:00,72.5,68.1,29.90,WNW,295,0.0,11.0,86,0.00,,---,0.00,VWS V14.01,2013-09-12 07:30:00,
2013-09-12 02:31:00,72.5,68.1,29.90,WNW,295,0.0,0.0,86,0.00,,---,0.00,VWS V14.01,2013-09-12 07:31:00,
2013-09-12 02:34:00,72.4,68.0,29.90,WNW,298,1.0,5.0,86,0.00,,---,0.00,VWS V14.01,2013-09-12 07:34:00,
2013-09-12 02:35:00,72.3,67.9,29.90,NW,316,1.0,5.0,86,0.00,,---,0.00,VWS V14.01,2013-09-12 07:35:00,
2013-09-12 02:36:00,72.2,67.8,29.90,WNW,293,0.0,5.0,86,0.00,,---,0.00,VWS V14.01,2013-09-12 07:36:00,
2013-09-12 02:39:00,72.1,67.7,29.90,NNW,346,0.0,6.0,86,0.00,,---,0.00,VWS V14.01,2013-09-12 07:39:00,
2013-09-12 02:40:00,72.1,67.7,29.90,NW,307,3.0,6.0,86,0.00,,---,0.00,VWS V14.01,2013-09-12 07:40:00,
2013-09-12 02:41:00,72.1,68.0,29.90,WNW,294,0.0,6.0,87,0.00,,---,0.00,VWS V14.01,2013-09-12 07:41:00,
2013-09-12 02:44:00,71.9,67.8,29.91,WNW,294,6.0,6.0,87,0.00,,---,0.00,VWS V14.01,2013-09-12 07:44:00,
2013-09-12 02:45:00,71.9,67.8,29.90,WNW,295,3.0,6.0,87,0.00,,---,0.00,VWS V14.01,2013-09-12 07:45:00,
2013-09-12 02:46:00,71.8,67.7,29.90,WNW,303,5.0,6.0,87,0.00,,---,0.00,VWS V14.01,2013-09-12 07:46:00,
2013-09-12 02:47:00,71.7,67.6,29.90,WNW,302,0.0,6.0,87,0.00,,---,0.00,VWS V14.01,2013-09-12 07:47:00,
2013-09-12 02:49:00,71.6,67.5,29.90,WNW,301,3.0,6.0,87,0.00,,---,0.00,VWS V14.01,2013-09-12 07:49:00,
2013-09-12 02:50:00,71.6,67.9,29.90,WNW,300,4.0,6.0,88,0.00,,---,0.00,VWS V14.01,2013-09-12 07:50:00,
2013-09-12 02:51:00,71.5,67.8,29.90,WNW,296,0.0,6.0,88,0.00,,---,0.00,VWS V14.01,2013-09-12 07:51:00,
2013-09-12 02:52:00,71.5,67.8,29.90,West,281,3.0,6.0,88,0.00,,---,0.00,VWS V14.01,2013-09-12 07:52:00,
2013-09-12 02:54:00,71.4,67.7,29.91,North,355,2.0,6.0,88,0.00,,---,0.00,VWS V14.01,2013-09-12 07:54:00,
2013-09-12 02:55:00,71.4,67.7,29.91,North,355,3.0,6.0,88,0.00,,---,0.00,VWS V14.01,2013-09-12 07:55:00,
2013-09-12 02:56:00,71.4,67.7,29.90,NW,305,1.0,6.0,88,0.00,,---,0.00,VWS V14.01,2013-09-12 07:56:00,
2013-09-12 02:57:00,71.3,67.6,29.91,NW,323,2.0,6.0,88,0.00,,---,0.00,VWS V14.01,2013-09-12 07:57:00,
2013-09-12 02:58:00,71.3,67.6,29.91,NW,321,0.0,6.0,88,0.00,,---,0.00,VWS V14.01,2013-09-12 07:58:00,
2013-09-12 02:59:00,71.3,67.6,29.91,NW,304,0.0,6.0,88,0.00,,---,0.00,VWS V14.01,2013-09-12 07:59:00,
2013-09-12 03:00:00,71.3,67.6,29.91,NW,304,1.0,6.0,88,0.00,,---,0.00,VWS V14.01,2013-09-12 08:00:00,
2013-09-12 03:01:00,71.3,67.9,29.91,WNW,291,2.0,4.0,89,0.00,,---,0.00,VWS V14.01,2013-09-12 08:01:00,
2013-09-12 03:02:00,71.2,67.8,29.91,WNW,293,4.0,4.0,89,0.00,,---,0.00,VWS V14.01,2013-09-12 08:02:00,
2013-09-12 03:03:00,71.2,67.8,29.91,WNW,298,6.0,9.0,89,0.00,,---,0.00,VWS V14.01,2013-09-12 08:03:00,
2013-09-12 03:04:00,71.1,67.7,29.91,WNW,288,5.0,9.0,89,0.00,,---,0.00,VWS V14.01,2013-09-12 08:04:00,
2013-09-12 03:05:00,71.1,67.7,29.91,WNW,288,5.0,9.0,89,0.00,,---,0.00,VWS V14.01,2013-09-12 08:05:00,
2013-09-12 03:06:00,71.1,67.7,29.91,WNW,294,5.0,9.0,89,0.00,,---,0.00,VWS V14.01,2013-09-12 08:06:00,
2013-09-12 03:07:00,71.1,67.7,29.91,NW,304,3.0,9.0,89,0.00,,---,0.00,VWS V14.01,2013-09-12 08:07:00,
2013-09-12 03:08:00,71.0,67.6,29.91,WNW,302,2.0,9.0,89,0.00,,---,0.00,VWS V14.01,2013-09-12 08:08:00,
2013-09-12 03:09:00,71.0,67.6,29.91,WNW,296,4.0,9.0,89,0.00,,---,0.00,VWS V14.01,2013-09-12 08:09:00,
2013-09-12 03:10:00,71.0,67.6,29.91,NW,306,1.0,9.0,89,0.00,,---,0.00,VWS V14.01,2013-09-12 08:10:00,
2013-09-12 03:11:00,71.0,67.9,29.91,WNW,297,2.0,9.0,90,0.00,,---,0.00,VWS V14.01,2013-09-12 08:11:00,
2013-09-12 03:12:00,71.0,67.9,29.91,NNW,335,2.0,9.0,90,0.00,,---,0.00,VWS V14.01,2013-09-12 08:12:00,
2013-09-12 03:13:00,70.9,67.8,29.91,WNW,282,4.0,9.0,90,0.00,,---,0.00,VWS V14.01,2013-09-12 08:13:00,
2013-09-12 03:14:00,70.9,67.8,29.91,NW,305,2.0,9.0,90,0.00,,---,0.00,VWS V14.01,2013-09-12 08:14:00,
2013-09-12 03:15:00,70.9,67.8,29.91,WNW,294,5.0,9.0,90,0.00,,---,0.00,VWS V14.01,2013-09-12 08:15:00,
2013-09-12 03:17:00,70.8,67.7,29.91,WNW,298,2.0,9.0,90,0.00,,---,0.00,VWS V14.01,2013-09-12 08:17:00,
2013-09-12 03:18:00,70.8,68.1,29.91,WNW,292,5.0,9.0,91,0.00,,---,0.00,VWS V14.01,2013-09-12 08:18:00,
2013-09-12 03:19:00,70.8,68.1,29.92,WNW,296,1.0,9.0,91,0.00,,---,0.00,VWS V14.01,2013-09-12 08:19:00,
2013-09-12 03:20:00,70.8,68.1,29.92,NW,311,4.0,9.0,91,0.00,,---,0.00,VWS V14.01,2013-09-12 08:20:00,
2013-09-12 03:22:00,70.8,68.1,29.92,WNW,298,5.0,9.0,91,0.00,,---,0.00,VWS V14.01,2013-09-12 08:22:00,
2013-09-12 03:23:00,70.8,68.1,29.91,NNW,333,1.0,9.0,91,0.00,,---,0.00,VWS V14.01,2013-09-12 08:23:00,
2013-09-12 03:24:00,70.8,68.1,29.91,NNW,348,0.0,9.0,91,0.00,,---,0.00,VWS V14.01,2013-09-12 08:24:00,
2013-09-12 03:25:00,70.8,68.1,29.91,NW,306,3.0,9.0,91,0.00,,---,0.00,VWS V14.01,2013-09-12 08:25:00,
2013-09-12 03:27:00,70.8,68.1,29.91,NW,304,3.0,9.0,91,0.00,,---,0.00,VWS V14.01,2013-09-12 08:27:00,
2013-09-12 03:28:00,70.7,67.9,29.91,NW,305,4.0,9.0,91,0.00,,---,0.00,VWS V14.01,2013-09-12 08:28:00,
2013-09-12 03:29:00,70.7,67.9,29.91,NW,305,2.0,9.0,91,0.00,,---,0.00,VWS V14.01,2013-09-12 08:29:00,
2013-09-12 03:30:00,70.7,68.3,29.91,NW,305,1.0,9.0,92,0.00,,---,0.00,VWS V14.01,2013-09-12 08:30:00,
2013-09-12 03:31:00,70.7,68.3,29.91,NW,325,2.0,5.0,92,0.00,,---,0.00,VWS V14.01,2013-09-12 08:31:00,
2013-09-12 03:32:00,70.7,68.3,29.91,NNE,15,1.0,5.0,92,0.00,,---,0.00,VWS V14.01,2013-09-12 08:32:00,
2013-09-12 03:34:00,70.7,68.3,29.91,WNW,300,0.0,5.0,92,0.00,,---,0.00,VWS V14.01,2013-09-12 08:34:00,
2013-09-12 04:00:00,70.3,67.9,29.91,WNW,292,1.0,4.0,92,0.00,,---,0.00,VWS V14.01,2013-09-12 09:00:00,
2013-09-12 04:30:00,70.0,67.9,29.92,WNW,292,0.0,1.0,93,0.00,,---,0.00,VWS V14.01,2013-09-12 09:30:00,
2013-09-12 05:05:00,70.0,67.9,29.92,WNW,292,0.0,1.0,93,0.00,,---,0.00,VWS V14.01,2013-09-12 10:05:00,
2013-09-12 05:06:00,70.2,68.1,29.91,WSW,241,0.0,0.0,93,0.00,,---,0.00,VWS V14.01,2013-09-12 10:06:00,
2013-09-12 05:10:00,70.2,68.1,29.91,WSW,241,0.0,0.0,93,0.01,,---,0.01,VWS V14.01,2013-09-12 10:10:00,
2013-09-12 05:11:00,70.2,68.1,29.91,WSW,241,0.0,0.0,93,0.01,,---,0.01,VWS V14.01,2013-09-12 10:11:00,
2013-09-12 05:12:00,70.2,68.1,29.91,WSW,241,0.0,0.0,93,0.01,,---,0.01,VWS V14.01,2013-09-12 10:12:00,
2013-09-12 05:16:00,70.2,68.1,29.91,WSW,241,0.0,0.0,93,0.01,,---,0.01,VWS V14.01,2013-09-12 10:16:00,
2013-09-12 05:17:00,70.2,68.1,29.92,WSW,241,0.0,0.0,93,0.01,,---,0.01,VWS V14.01,2013-09-12 10:17:00,
2013-09-12 05:21:00,70.2,68.1,29.92,WSW,241,0.0,0.0,93,0.01,,---,0.01,VWS V14.01,2013-09-12 10:21:00,
2013-09-12 05:22:00,70.2,68.1,29.92,WSW,241,0.0,0.0,93,0.01,,---,0.01,VWS V14.01,2013-09-12 10:22:00,
2013-09-12 05:23:00,70.2,68.1,29.92,WSW,241,0.0,0.0,93,0.01,,---,0.01,VWS V14.01,2013-09-12 10:23:00,
2013-09-12 05:26:00,70.2,68.1,29.93,WNW,283,2.0,3.0,93,0.01,,---,0.01,VWS V14.01,2013-09-12 10:26:00,
2013-09-12 05:27:00,70.2,68.1,29.93,WNW,283,3.0,3.0,93,0.01,,---,0.01,VWS V14.01,2013-09-12 10:27:00,
2013-09-12 05:28:00,70.1,68.0,29.93,WNW,290,4.0,5.0,93,0.01,,---,0.01,VWS V14.01,2013-09-12 10:28:00,
2013-09-12 05:31:00,70.1,68.0,29.94,WNW,292,6.0,6.0,93,0.01,,---,0.01,VWS V14.01,2013-09-12 10:31:00,
2013-09-12 05:33:00,70.1,68.0,29.94,WNW,302,6.0,7.0,93,0.01,,---,0.01,VWS V14.01,2013-09-12 10:33:00,
2013-09-12 05:34:00,70.1,68.0,29.94,WNW,288,6.0,7.0,93,0.02,,---,0.02,VWS V14.01,2013-09-12 10:34:00,
2013-09-12 05:36:00,70.0,67.9,29.94,WNW,298,7.0,11.0,93,0.03,,---,0.03,VWS V14.01,2013-09-12 10:36:00,
2013-09-12 05:38:00,69.9,67.5,29.94,WNW,287,9.0,14.0,92,0.05,,---,0.05,VWS V14.01,2013-09-12 10:38:00,
2013-09-12 05:39:00,69.8,67.4,29.94,West,279,6.0,14.0,92,0.07,,---,0.07,VWS V14.01,2013-09-12 10:39:00,
2013-09-12 05:41:00,69.7,67.0,29.94,WNW,283,9.0,14.0,91,0.09,,---,0.09,VWS V14.01,2013-09-12 10:41:00,
2013-09-12 05:43:00,69.4,66.7,29.94,West,279,10.0,14.0,91,0.10,,---,0.10,VWS V14.01,2013-09-12 10:43:00,
2013-09-12 05:44:00,69.4,66.7,29.95,WNW,296,6.0,14.0,91,0.10,,---,0.10,VWS V14.01,2013-09-12 10:44:00,
2013-09-12 05:46:00,69.2,66.2,29.95,WNW,290,2.0,14.0,90,0.11,,---,0.11,VWS V14.01,2013-09-12 10:46:00,
2013-09-12 05:49:00,68.9,65.8,29.95,WNW,283,4.0,14.0,90,0.11,,---,0.11,VWS V14.01,2013-09-12 10:49:00,
2013-09-12 05:51:00,68.9,65.8,29.95,WNW,300,5.0,14.0,90,0.11,,---,0.11,VWS V14.01,2013-09-12 10:51:00,
2013-09-12 05:52:00,68.9,65.8,29.95,WNW,286,7.0,14.0,90,0.11,,---,0.11,VWS V14.01,2013-09-12 10:52:00,
2013-09-12 05:54:00,69.0,65.9,29.95,WNW,296,5.0,14.0,90,0.12,,---,0.12,VWS V14.01,2013-09-12 10:54:00,
2013-09-12 05:56:00,69.0,65.9,29.95,WNW,290,6.0,14.0,90,0.12,,---,0.12,VWS V14.01,2013-09-12 10:56:00,
2013-09-12 05:57:00,69.0,65.9,29.95,WNW,300,2.0,14.0,90,0.12,,---,0.12,VWS V14.01,2013-09-12 10:57:00,
2013-09-12 05:58:00,69.0,65.9,29.95,WNW,300,7.0,14.0,90,0.13,,---,0.13,VWS V14.01,2013-09-12 10:58:00,
2013-09-12 05:59:00,69.0,66.3,29.95,WNW,297,5.0,14.0,91,0.13,,---,0.13,VWS V14.01,2013-09-12 10:59:00,
2013-09-12 06:01:00,69.0,66.3,29.95,WNW,302,5.0,5.0,91,0.12,,---,0.13,VWS V14.01,2013-09-12 11:01:00,
2013-09-12 06:02:00,69.0,66.3,29.95,WNW,293,7.0,7.0,91,0.12,,---,0.13,VWS V14.01,2013-09-12 11:02:00,
2013-09-12 06:03:00,69.0,66.3,29.95,WNW,301,1.0,7.0,91,0.13,,---,0.14,VWS V14.01,2013-09-12 11:03:00,
2013-09-12 06:04:00,69.0,66.6,29.95,WNW,290,6.0,7.0,92,0.13,,---,0.14,VWS V14.01,2013-09-12 11:04:00,
2013-09-12 06:05:00,69.0,66.6,29.95,WNW,294,4.0,7.0,92,0.13,,---,0.14,VWS V14.01,2013-09-12 11:05:00,
2013-09-12 06:06:00,69.0,66.6,29.95,WNW,284,4.0,7.0,92,0.13,,---,0.14,VWS V14.01,2013-09-12 11:06:00,
2013-09-12 06:07:00,69.0,66.6,29.95,WNW,286,1.0,7.0,92,0.13,,---,0.14,VWS V14.01,2013-09-12 11:07:00,
2013-09-12 06:08:00,69.0,66.6,29.95,WNW,286,0.0,7.0,92,0.13,,---,0.14,VWS V14.01,2013-09-12 11:08:00,
2013-09-12 06:10:00,68.9,66.5,29.95,WNW,289,1.0,7.0,92,0.13,,---,0.14,VWS V14.01,2013-09-12 11:10:00,
2013-09-12 06:11:00,68.9,66.5,29.95,WNW,289,0.0,7.0,92,0.13,,---,0.14,VWS V14.01,2013-09-12 11:11:00,
2013-09-12 06:12:00,68.9,66.5,29.95,WNW,289,0.0,7.0,92,0.13,,---,0.14,VWS V14.01,2013-09-12 11:12:00,
2013-09-12 06:13:00,68.9,66.5,29.95,WNW,289,0.0,7.0,92,0.13,,---,0.14,VWS V14.01,2013-09-12 11:13:00,
2013-09-12 06:14:00,68.8,66.4,29.95,WNW,289,0.0,7.0,92,0.13,,---,0.14,VWS V14.01,2013-09-12 11:14:00,
2013-09-12 06:15:00,68.8,66.4,29.95,WNW,289,0.0,7.0,92,0.13,,---,0.14,VWS V14.01,2013-09-12 11:15:00,
2013-09-12 06:16:00,68.8,66.4,29.95,WNW,289,0.0,7.0,92,0.13,,---,0.14,VWS V14.01,2013-09-12 11:16:00,
2013-09-12 06:17:00,68.8,66.4,29.95,WNW,289,0.0,7.0,92,0.13,,---,0.14,VWS V14.01,2013-09-12 11:17:00,
2013-09-12 06:19:00,68.7,66.3,29.94,WNW,289,0.0,7.0,92,0.13,,---,0.14,VWS V14.01,2013-09-12 11:19:00,
2013-09-12 06:20:00,68.7,66.3,29.94,WNW,283,0.0,7.0,92,0.13,,---,0.14,VWS V14.01,2013-09-12 11:20:00,
2013-09-12 06:21:00,68.7,66.3,29.94,WNW,283,0.0,7.0,92,0.13,,---,0.14,VWS V14.01,2013-09-12 11:21:00,
2013-09-12 06:22:00,68.7,66.6,29.94,WNW,283,0.0,7.0,93,0.13,,---,0.14,VWS V14.01,2013-09-12 11:22:00,
2013-09-12 06:24:00,68.6,66.5,29.94,West,279,0.0,7.0,93,0.13,,---,0.14,VWS V14.01,2013-09-12 11:24:00,
2013-09-12 06:25:00,68.6,66.5,29.94,West,269,2.0,7.0,93,0.14,,---,0.15,VWS V14.01,2013-09-12 11:25:00,
2013-09-12 06:26:00,68.7,66.6,29.94,SW,234,3.0,7.0,93,0.14,,---,0.15,VWS V14.01,2013-09-12 11:26:00,
2013-09-12 06:27:00,68.6,66.5,29.94,SW,234,0.0,7.0,93,0.14,,---,0.15,VWS V14.01,2013-09-12 11:27:00,
2013-09-12 06:29:00,68.6,66.5,29.94,SW,234,0.0,7.0,93,0.14,,---,0.15,VWS V14.01,2013-09-12 11:29:00,
2013-09-12 06:31:00,68.6,66.5,29.94,SW,234,0.0,1.0,93,0.14,,---,0.15,VWS V14.01,2013-09-12 11:31:00,
2013-09-12 06:32:00,68.6,66.5,29.94,SW,234,0.0,1.0,93,0.14,,---,0.15,VWS V14.01,2013-09-12 11:32:00,
2013-09-12 06:34:00,68.6,66.5,29.94,SW,234,0.0,1.0,93,0.14,,---,0.15,VWS V14.01,2013-09-12 11:34:00,
2013-09-12 06:36:00,68.6,66.5,29.94,SW,234,1.0,1.0,93,0.14,,---,0.15,VWS V14.01,2013-09-12 11:36:00,
2013-09-12 06:37:00,68.6,66.5,29.94,SW,234,0.0,1.0,93,0.14,,---,0.15,VWS V14.01,2013-09-12 11:37:00,
2013-09-12 06:38:00,68.6,66.5,29.94,SW,234,0.0,1.0,93,0.14,,---,0.15,VWS V14.01,2013-09-12 11:38:00,
2013-09-12 06:39:00,68.6,66.5,29.94,SW,234,0.0,1.0,93,0.14,,---,0.15,VWS V14.01,2013-09-12 11:39:00,
2013-09-12 06:41:00,68.5,66.4,29.94,SW,234,0.0,1.0,93,0.14,,---,0.15,VWS V14.01,2013-09-12 11:41:00,
2013-09-12 06:42:00,68.5,66.4,29.94,SW,234,0.0,1.0,93,0.14,,---,0.15,VWS V14.01,2013-09-12 11:42:00,
2013-09-12 06:43:00,68.5,66.1,29.94,SW,234,0.0,1.0,92,0.14,,---,0.15,VWS V14.01,2013-09-12 11:43:00,
2013-09-12 06:44:00,68.5,66.1,29.94,SW,234,0.0,1.0,92,0.14,,---,0.15,VWS V14.01,2013-09-12 11:44:00,
2013-09-12 06:47:00,68.5,66.4,29.94,SW,234,0.0,1.0,93,0.14,,---,0.15,VWS V14.01,2013-09-12 11:47:00,
2013-09-12 06:48:00,68.4,66.3,29.94,SW,234,0.0,1.0,93,0.14,,---,0.15,VWS V14.01,2013-09-12 11:48:00,
2013-09-12 06:49:00,68.4,66.3,29.94,SW,234,0.0,1.0,93,0.14,,---,0.15,VWS V14.01,2013-09-12 11:49:00,
2013-09-12 06:52:00,68.3,66.2,29.94,SW,234,1.0,2.0,93,0.14,,---,0.15,VWS V14.01,2013-09-12 11:52:00,
2013-09-12 06:53:00,68.3,66.2,29.94,SW,234,0.0,2.0,93,0.14,,---,0.15,VWS V14.01,2013-09-12 11:53:00,
2013-09-12 06:55:00,68.3,66.2,29.94,SW,234,1.0,2.0,93,0.14,,---,0.15,VWS V14.01,2013-09-12 11:55:00,
2013-09-12 06:57:00,68.4,66.3,29.94,SW,234,2.0,3.0,93,0.14,,---,0.15,VWS V14.01,2013-09-12 11:57:00,
2013-09-12 06:58:00,68.4,66.3,29.94,SW,234,0.0,3.0,93,0.14,,---,0.15,VWS V14.01,2013-09-12 11:58:00,
2013-09-12 07:00:00,68.4,66.3,29.94,SSW,205,3.0,3.0,93,0.14,,---,0.15,VWS V14.01,2013-09-12 12:00:00,
2013-09-12 07:02:00,68.4,66.3,29.94,SSW,205,2.0,3.0,93,0.02,,---,0.15,VWS V14.01,2013-09-12 12:02:00,
2013-09-12 07:03:00,68.5,66.4,29.94,SSW,205,0.0,3.0,93,0.02,,---,0.15,VWS V14.01,2013-09-12 12:03:00,
2013-09-12 07:04:00,68.5,66.4,29.94,SSW,205,2.0,3.0,93,0.02,,---,0.15,VWS V14.01,2013-09-12 12:04:00,
2013-09-12 07:05:00,68.5,66.4,29.94,SSW,205,2.0,3.0,93,0.02,,---,0.15,VWS V14.01,2013-09-12 12:05:00,
2013-09-12 07:08:00,68.5,66.4,29.94,SSW,196,1.0,3.0,93,0.02,,---,0.15,VWS V14.01,2013-09-12 12:08:00,
2013-09-12 07:09:00,68.5,66.4,29.94,SSW,196,1.0,3.0,93,0.02,,---,0.15,VWS V14.01,2013-09-12 12:09:00,
2013-09-12 07:10:00,68.5,66.7,29.94,SSW,196,0.0,3.0,94,0.02,,---,0.15,VWS V14.01,2013-09-12 12:10:00,
2013-09-12 07:13:00,68.5,66.7,29.94,SSW,196,0.0,3.0,94,0.02,,---,0.15,VWS V14.01,2013-09-12 12:13:00,
2013-09-12 07:14:00,68.5,66.7,29.94,SSW,196,0.0,3.0,94,0.02,,---,0.15,VWS V14.01,2013-09-12 12:14:00,
2013-09-12 07:15:00,68.5,66.7,29.94,SSW,196,0.0,3.0,94,0.02,,---,0.15,VWS V14.01,2013-09-12 12:15:00,
2013-09-12 07:16:00,68.5,66.7,29.94,SSW,196,0.0,3.0,94,0.02,,---,0.15,VWS V14.01,2013-09-12 12:16:00,
2013-09-12 07:18:00,68.6,66.8,29.94,SSW,196,0.0,3.0,94,0.02,,---,0.15,VWS V14.01,2013-09-12 12:18:00,
2013-09-12 07:19:00,68.6,66.8,29.94,SSW,196,0.0,3.0,94,0.02,,---,0.15,VWS V14.01,2013-09-12 12:19:00,
2013-09-12 07:21:00,68.6,66.8,29.94,SSW,196,1.0,3.0,94,0.02,,---,0.15,VWS V14.01,2013-09-12 12:21:00,
2013-09-12 07:22:00,68.6,66.8,29.94,SSW,196,0.0,3.0,94,0.02,,---,0.15,VWS V14.01,2013-09-12 12:22:00,
2013-09-12 07:23:00,68.6,66.8,29.94,SSW,196,0.0,3.0,94,0.02,,---,0.15,VWS V14.01,2013-09-12 12:23:00,
2013-09-12 07:24:00,68.6,66.8,29.94,SSW,198,2.0,3.0,94,0.02,,---,0.15,VWS V14.01,2013-09-12 12:24:00,
2013-09-12 07:26:00,68.7,66.9,29.93,SSW,198,0.0,3.0,94,0.02,,---,0.15,VWS V14.01,2013-09-12 12:26:00,
2013-09-12 07:27:00,68.7,66.9,29.93,SSW,198,0.0,3.0,94,0.02,,---,0.15,VWS V14.01,2013-09-12 12:27:00,
2013-09-12 07:28:00,68.7,66.9,29.93,SSW,198,1.0,3.0,94,0.02,,---,0.15,VWS V14.01,2013-09-12 12:28:00,
2013-09-12 07:29:00,68.7,66.9,29.94,SSW,198,1.0,3.0,94,0.02,,---,0.15,VWS V14.01,2013-09-12 12:29:00,
2013-09-12 07:31:00,68.7,66.9,29.94,SSW,198,1.0,2.0,94,0.00,,---,0.15,VWS V14.01,2013-09-12 12:31:00,
2013-09-12 07:32:00,68.7,66.9,29.94,SSW,198,2.0,2.0,94,0.00,,---,0.15,VWS V14.01,2013-09-12 12:32:00,
2013-09-12 07:33:00,68.7,66.9,29.93,SSW,209,2.0,2.0,94,0.00,,---,0.15,VWS V14.01,2013-09-12 12:33:00,
2013-09-12 07:34:00,68.7,66.9,29.93,SW,215,0.0,2.0,94,0.00,,---,0.15,VWS V14.01,2013-09-12 12:34:00,
2013-09-12 07:35:00,68.7,66.9,29.93,SW,215,0.0,2.0,94,0.00,,---,0.15,VWS V14.01,2013-09-12 12:35:00,
2013-09-12 07:36:00,68.7,66.9,29.93,SW,215,0.0,2.0,94,0.00,,---,0.15,VWS V14.01,2013-09-12 12:36:00,
2013-09-12 07:37:00,68.7,66.9,29.94,SW,215,0.0,2.0,94,0.00,,---,0.15,VWS V14.01,2013-09-12 12:37:00,
2013-09-12 07:38:00,68.7,66.9,29.94,SW,215,1.0,2.0,94,0.00,,---,0.15,VWS V14.01,2013-09-12 12:38:00,
2013-09-12 07:40:00,68.7,66.9,29.94,SW,215,2.0,2.0,94,0.00,,---,0.15,VWS V14.01,2013-09-12 12:40:00,
2013-09-12 07:41:00,68.7,66.9,29.94,SW,215,0.0,2.0,94,0.00,,---,0.15,VWS V14.01,2013-09-12 12:41:00,
2013-09-12 07:43:00,68.7,66.9,29.94,SW,215,0.0,2.0,94,0.00,,---,0.15,VWS V14.01,2013-09-12 12:43:00,
2013-09-12 07:44:00,68.7,66.9,29.94,SW,215,0.0,2.0,94,0.00,,---,0.15,VWS V14.01,2013-09-12 12:44:00,
2013-09-12 07:45:00,68.8,67.0,29.94,SW,215,0.0,2.0,94,0.00,,---,0.15,VWS V14.01,2013-09-12 12:45:00,
2013-09-12 07:46:00,68.8,67.0,29.94,SW,215,0.0,2.0,94,0.00,,---,0.15,VWS V14.01,2013-09-12 12:46:00,
2013-09-12 07:48:00,68.8,67.0,29.93,SW,215,0.0,2.0,94,0.00,,---,0.15,VWS V14.01,2013-09-12 12:48:00,
2013-09-12 07:49:00,68.8,67.3,29.94,SW,215,0.0,2.0,95,0.00,,---,0.15,VWS V14.01,2013-09-12 12:49:00,
2013-09-12 07:50:00,68.8,67.3,29.94,SW,215,0.0,2.0,95,0.00,,---,0.15,VWS V14.01,2013-09-12 12:50:00,
2013-09-12 07:51:00,68.8,67.3,29.94,SW,215,0.0,2.0,95,0.00,,---,0.15,VWS V14.01,2013-09-12 12:51:00,
2013-09-12 07:53:00,68.8,67.3,29.94,SW,215,0.0,2.0,95,0.00,,---,0.15,VWS V14.01,2013-09-12 12:53:00,
2013-09-12 07:55:00,68.8,67.3,29.94,SW,215,0.0,2.0,95,0.00,,---,0.15,VWS V14.01,2013-09-12 12:55:00,
2013-09-12 07:56:00,68.8,67.3,29.94,SW,215,0.0,2.0,95,0.00,,---,0.15,VWS V14.01,2013-09-12 12:56:00,
2013-09-12 07:58:00,68.8,67.3,29.94,SW,215,0.0,2.0,95,0.00,,---,0.15,VWS V14.01,2013-09-12 12:58:00,
2013-09-12 08:00:00,68.8,67.3,29.94,SW,215,0.0,0.0,95,0.00,,---,0.15,VWS V14.01,2013-09-12 13:00:00,
2013-09-12 08:02:00,68.8,67.3,29.94,SW,215,0.0,0.0,95,0.00,,---,0.15,VWS V14.01,2013-09-12 13:02:00,
2013-09-12 08:03:00,68.8,67.3,29.94,SW,215,0.0,1.0,95,0.00,,---,0.15,VWS V14.01,2013-09-12 13:03:00,
2013-09-12 08:05:00,68.8,67.3,29.94,West,276,0.0,3.0,95,0.00,,---,0.15,VWS V14.01,2013-09-12 13:05:00,
2013-09-12 08:06:00,68.8,67.3,29.94,West,276,0.0,3.0,95,0.00,,---,0.15,VWS V14.01,2013-09-12 13:06:00,
2013-09-12 08:07:00,68.8,67.3,29.94,West,276,0.0,3.0,95,0.00,,---,0.15,VWS V14.01,2013-09-12 13:07:00,
2013-09-12 08:08:00,68.8,67.3,29.94,WNW,285,1.0,4.0,95,0.00,,---,0.15,VWS V14.01,2013-09-12 13:08:00,
2013-09-12 08:09:00,68.8,67.3,29.94,WNW,285,1.0,4.0,95,0.00,,---,0.15,VWS V14.01,2013-09-12 13:09:00,
2013-09-12 08:11:00,68.9,67.4,29.94,WNW,284,1.0,4.0,95,0.00,,---,0.15,VWS V14.01,2013-09-12 13:11:00,
2013-09-12 08:12:00,68.8,67.3,29.94,WNW,284,1.0,4.0,95,0.00,,---,0.15,VWS V14.01,2013-09-12 13:12:00,
2013-09-12 08:13:00,68.8,67.3,29.94,WNW,284,1.0,4.0,95,0.00,,---,0.15,VWS V14.01,2013-09-12 13:13:00,
2013-09-12 08:14:00,68.8,67.3,29.94,WNW,284,1.0,4.0,95,0.00,,---,0.15,VWS V14.01,2013-09-12 13:14:00,
2013-09-12 08:16:00,68.8,67.3,29.94,WNW,284,3.0,4.0,95,0.00,,---,0.15,VWS V14.01,2013-09-12 13:16:00,
2013-09-12 08:17:00,68.8,67.3,29.94,WNW,284,2.0,4.0,95,0.00,,---,0.15,VWS V14.01,2013-09-12 13:17:00,
2013-09-12 08:19:00,68.8,67.3,29.94,WNW,284,1.0,4.0,95,0.00,,---,0.15,VWS V14.01,2013-09-12 13:19:00,
2013-09-12 08:21:00,68.8,67.3,29.94,WNW,284,0.0,4.0,95,0.00,,---,0.15,VWS V14.01,2013-09-12 13:21:00,
2013-09-12 08:22:00,68.8,67.3,29.94,WNW,284,0.0,4.0,95,0.00,,---,0.15,VWS V14.01,2013-09-12 13:22:00,
2013-09-12 08:23:00,68.8,67.3,29.94,WNW,284,0.0,4.0,95,0.00,,---,0.15,VWS V14.01,2013-09-12 13:23:00,
2013-09-12 08:24:00,68.8,67.3,29.94,WNW,284,1.0,4.0,95,0.00,,---,0.15,VWS V14.01,2013-09-12 13:24:00,
2013-09-12 08:25:00,68.8,67.3,29.94,WNW,284,1.0,4.0,95,0.00,,---,0.15,VWS V14.01,2013-09-12 13:25:00,
2013-09-12 08:26:00,68.8,67.3,29.94,WNW,284,2.0,4.0,95,0.00,,---,0.15,VWS V14.01,2013-09-12 13:26:00,
2013-09-12 08:27:00,68.8,67.3,29.94,WNW,284,0.0,4.0,95,0.00,,---,0.15,VWS V14.01,2013-09-12 13:27:00,
2013-09-12 08:28:00,68.8,67.3,29.94,WNW,284,0.0,4.0,95,0.00,,---,0.15,VWS V14.01,2013-09-12 13:28:00,
2013-09-12 08:29:00,68.8,67.3,29.94,WNW,284,0.0,4.0,95,0.00,,---,0.15,VWS V14.01,2013-09-12 13:29:00,
2013-09-12 08:30:00,68.9,67.4,29.94,WNW,284,1.0,4.0,95,0.00,,---,0.15,VWS V14.01,2013-09-12 13:30:00,
2013-09-12 08:31:00,68.9,67.4,29.94,WNW,284,0.0,0.0,95,0.00,,---,0.15,VWS V14.01,2013-09-12 13:31:00,
2013-09-12 08:33:00,69.0,67.5,29.94,West,281,1.0,2.0,95,0.00,,---,0.15,VWS V14.01,2013-09-12 13:33:00,
2013-09-12 08:34:00,69.0,67.5,29.94,West,277,1.0,2.0,95,0.00,,---,0.15,VWS V14.01,2013-09-12 13:34:00,
2013-09-12 08:36:00,69.0,67.2,29.94,West,277,3.0,3.0,94,0.00,,---,0.15,VWS V14.01,2013-09-12 13:36:00,
2013-09-12 08:38:00,69.0,67.2,29.94,West,279,3.0,3.0,94,0.00,,---,0.15,VWS V14.01,2013-09-12 13:38:00,
2013-09-12 08:39:00,69.0,67.2,29.94,West,279,1.0,3.0,94,0.00,,---,0.15,VWS V14.01,2013-09-12 13:39:00,
2013-09-12 08:41:00,69.0,67.2,29.94,West,279,0.0,3.0,94,0.00,,---,0.15,VWS V14.01,2013-09-12 13:41:00,
2013-09-12 08:43:00,69.1,67.3,29.94,WNW,286,4.0,4.0,94,0.00,,---,0.15,VWS V14.01,2013-09-12 13:43:00,
2013-09-12 08:44:00,69.1,67.3,29.94,WNW,284,5.0,5.0,94,0.00,,---,0.15,VWS V14.01,2013-09-12 13:44:00,
2013-09-12 08:46:00,69.2,67.1,29.94,WNW,288,1.0,5.0,93,0.00,,---,0.15,VWS V14.01,2013-09-12 13:46:00,
2013-09-12 08:48:00,69.2,67.1,29.94,WNW,288,1.0,5.0,93,0.00,,---,0.15,VWS V14.01,2013-09-12 13:48:00,
2013-09-12 08:49:00,69.2,67.1,29.94,WNW,288,1.0,5.0,93,0.00,,---,0.15,VWS V14.01,2013-09-12 13:49:00,
2013-09-12 08:51:00,69.3,67.2,29.94,SW,228,0.0,5.0,93,0.00,,---,0.15,VWS V14.01,2013-09-12 13:51:00,
2013-09-12 08:52:00,69.3,67.2,29.94,SW,228,1.0,5.0,93,0.00,,---,0.15,VWS V14.01,2013-09-12 13:52:00,
2013-09-12 08:53:00,69.3,67.2,29.94,WNW,289,4.0,5.0,93,0.00,,---,0.15,VWS V14.01,2013-09-12 13:53:00,
2013-09-12 08:54:00,69.3,67.2,29.94,WNW,289,1.0,5.0,93,0.00,,---,0.15,VWS V14.01,2013-09-12 13:54:00,
2013-09-12 08:56:00,69.4,67.3,29.94,West,280,0.0,5.0,93,0.00,,---,0.15,VWS V14.01,2013-09-12 13:56:00,
2013-09-12 08:57:00,69.4,67.3,29.93,West,280,0.0,5.0,93,0.00,,---,0.15,VWS V14.01,2013-09-12 13:57:00,
2013-09-12 08:58:00,69.4,67.3,29.93,West,280,0.0,5.0,93,0.00,,---,0.15,VWS V14.01,2013-09-12 13:58:00,
2013-09-12 08:59:00,69.4,67.3,29.93,West,280,0.0,5.0,93,0.00,,---,0.15,VWS V14.01,2013-09-12 13:59:00,
2013-09-12 09:01:00,69.5,67.4,29.94,West,280,0.0,0.0,93,0.00,,---,0.15,VWS V14.01,2013-09-12 14:01:00,
2013-09-12 09:03:00,69.5,67.4,29.94,West,280,0.0,0.0,93,0.00,,---,0.15,VWS V14.01,2013-09-12 14:03:00,
2013-09-12 09:04:00,69.5,67.4,29.94,West,280,3.0,3.0,93,0.00,,---,0.15,VWS V14.01,2013-09-12 14:04:00,
2013-09-12 09:05:00,69.5,67.4,29.94,West,281,2.0,3.0,93,0.00,,---,0.15,VWS V14.01,2013-09-12 14:05:00,
2013-09-12 09:06:00,69.5,67.4,29.94,West,281,1.0,3.0,93,0.00,,---,0.15,VWS V14.01,2013-09-12 14:06:00,
2013-09-12 09:08:00,69.5,67.1,29.94,WNW,290,4.0,4.0,92,0.00,,---,0.15,VWS V14.01,2013-09-12 14:08:00,
2013-09-12 09:09:00,69.5,67.1,29.94,WNW,286,1.0,5.0,92,0.00,,---,0.15,VWS V14.01,2013-09-12 14:09:00,
2013-09-12 09:10:00,69.5,67.1,29.94,West,278,3.0,5.0,92,0.00,,---,0.15,VWS V14.01,2013-09-12 14:10:00,
2013-09-12 09:12:00,69.5,67.1,29.94,WNW,282,3.0,5.0,92,0.00,,---,0.15,VWS V14.01,2013-09-12 14:12:00,
2013-09-12 09:13:00,69.5,67.1,29.94,WNW,284,2.0,5.0,92,0.00,,---,0.15,VWS V14.01,2013-09-12 14:13:00,
2013-09-12 09:14:00,69.5,67.1,29.94,WNW,282,3.0,5.0,92,0.00,,---,0.15,VWS V14.01,2013-09-12 14:14:00,
2013-09-12 09:15:00,69.5,67.1,29.94,West,281,2.0,5.0,92,0.00,,---,0.15,VWS V14.01,2013-09-12 14:15:00,
2013-09-12 09:17:00,69.5,67.1,29.94,WNW,282,3.0,5.0,92,0.00,,---,0.15,VWS V14.01,2013-09-12 14:17:00,
2013-09-12 09:18:00,69.5,67.1,29.94,WNW,282,1.0,5.0,92,0.00,,---,0.15,VWS V14.01,2013-09-12 14:18:00,
2013-09-12 09:19:00,69.5,67.1,29.93,WNW,282,0.0,5.0,92,0.00,,---,0.15,VWS V14.01,2013-09-12 14:19:00,
2013-09-12 09:20:00,69.5,67.1,29.93,WNW,284,3.0,5.0,92,0.00,,---,0.15,VWS V14.01,2013-09-12 14:20:00,
2013-09-12 09:21:00,69.5,67.1,29.93,WNW,284,2.0,5.0,92,0.00,,---,0.15,VWS V14.01,2013-09-12 14:21:00,
2013-09-12 09:22:00,69.5,67.1,29.93,WNW,285,3.0,5.0,92,0.00,,---,0.15,VWS V14.01,2013-09-12 14:22:00,
2013-09-12 09:23:00,69.5,67.1,29.93,WNW,285,0.0,5.0,92,0.00,,---,0.15,VWS V14.01,2013-09-12 14:23:00,
2013-09-12 09:24:00,69.5,67.1,29.93,WNW,285,0.0,5.0,92,0.00,,---,0.15,VWS V14.01,2013-09-12 14:24:00,
2013-09-12 09:25:00,69.5,67.1,29.93,WNW,285,0.0,5.0,92,0.00,,---,0.15,VWS V14.01,2013-09-12 14:25:00,
2013-09-12 09:27:00,69.6,67.2,29.93,WNW,285,0.0,5.0,92,0.00,,---,0.15,VWS V14.01,2013-09-12 14:27:00,
2013-09-12 09:29:00,69.6,67.2,29.93,WNW,285,0.0,5.0,92,0.00,,---,0.15,VWS V14.01,2013-09-12 14:29:00,
2013-09-12 09:32:00,69.6,67.5,29.93,WNW,285,0.0,1.0,93,0.00,,---,0.15,VWS V14.01,2013-09-12 14:32:00,
2013-09-12 09:33:00,69.6,67.5,29.93,WNW,285,1.0,2.0,93,0.00,,---,0.15,VWS V14.01,2013-09-12 14:33:00,
2013-09-12 09:34:00,69.6,67.2,29.92,WNW,285,0.0,2.0,92,0.00,,---,0.15,VWS V14.01,2013-09-12 14:34:00,
2013-09-12 09:38:00,69.7,67.6,29.92,WSW,247,0.0,3.0,93,0.00,,---,0.15,VWS V14.01,2013-09-12 14:38:00,
2013-09-12 09:39:00,69.7,67.6,29.92,West,276,3.0,3.0,93,0.00,,---,0.15,VWS V14.01,2013-09-12 14:39:00,
2013-09-12 09:40:00,69.7,67.3,29.92,WNW,289,3.0,4.0,92,0.00,,---,0.15,VWS V14.01,2013-09-12 14:40:00,
2013-09-12 09:43:00,69.8,67.4,29.92,West,279,1.0,4.0,92,0.00,,---,0.15,VWS V14.01,2013-09-12 14:43:00,
2013-09-12 09:44:00,69.8,67.4,29.92,West,279,1.0,4.0,92,0.00,,---,0.15,VWS V14.01,2013-09-12 14:44:00,
2013-09-12 09:45:00,69.9,67.5,29.92,West,281,1.0,4.0,92,0.00,,---,0.15,VWS V14.01,2013-09-12 14:45:00,
2013-09-12 09:48:00,69.9,67.5,29.93,West,281,3.0,4.0,92,0.00,,---,0.15,VWS V14.01,2013-09-12 14:48:00,
2013-09-12 09:49:00,69.9,67.2,29.93,West,281,1.0,4.0,91,0.00,,---,0.15,VWS V14.01,2013-09-12 14:49:00,
2013-09-12 09:50:00,69.9,67.2,29.93,West,281,1.0,4.0,91,0.00,,---,0.15,VWS V14.01,2013-09-12 14:50:00,
2013-09-12 09:53:00,70.2,67.8,29.93,WNW,286,3.0,4.0,92,0.00,,---,0.15,VWS V14.01,2013-09-12 14:53:00,
2013-09-12 09:54:00,70.2,67.8,29.92,WNW,286,2.0,4.0,92,0.00,,---,0.15,VWS V14.01,2013-09-12 14:54:00,
2013-09-12 09:55:00,70.2,67.8,29.92,WNW,286,3.0,4.0,92,0.00,,---,0.15,VWS V14.01,2013-09-12 14:55:00,
2013-09-12 09:56:00,70.2,67.4,29.93,WNW,286,2.0,4.0,91,0.00,,---,0.15,VWS V14.01,2013-09-12 14:56:00,
2013-09-12 09:58:00,70.3,67.6,29.93,WNW,283,4.0,4.0,91,0.00,,---,0.15,VWS V14.01,2013-09-12 14:58:00,
2013-09-12 09:59:00,70.3,67.6,29.93,WNW,288,0.0,4.0,91,0.00,,---,0.15,VWS V14.01,2013-09-12 14:59:00,
2013-09-12 10:00:00,70.3,67.6,29.93,WNW,288,4.0,4.0,91,0.00,,---,0.15,VWS V14.01,2013-09-12 15:00:00,
2013-09-12 10:02:00,70.4,67.7,29.93,WNW,295,1.0,3.0,91,0.00,,---,0.15,VWS V14.01,2013-09-12 15:02:00,
2013-09-12 10:03:00,70.5,67.8,29.93,WNW,292,4.0,4.0,91,0.00,,---,0.15,VWS V14.01,2013-09-12 15:03:00,
2013-09-12 10:05:00,70.5,67.4,29.93,WNW,294,3.0,4.0,90,0.00,,---,0.15,VWS V14.01,2013-09-12 15:05:00,
2013-09-12 10:07:00,70.6,67.5,29.93,WNW,290,5.0,5.0,90,0.00,,---,0.15,VWS V14.01,2013-09-12 15:07:00,
2013-09-12 10:08:00,70.7,67.6,29.93,WNW,298,3.0,5.0,90,0.00,,---,0.15,VWS V14.01,2013-09-12 15:08:00,
2013-09-12 10:10:00,70.7,67.6,29.93,WNW,292,2.0,5.0,90,0.00,,---,0.15,VWS V14.01,2013-09-12 15:10:00,
2013-09-12 10:12:00,70.8,67.7,29.93,WNW,290,2.0,5.0,90,0.00,,---,0.15,VWS V14.01,2013-09-12 15:12:00,
2013-09-12 10:13:00,70.9,67.8,29.93,WNW,290,1.0,5.0,90,0.00,,---,0.15,VWS V14.01,2013-09-12 15:13:00,
2013-09-12 10:15:00,71.0,67.9,29.93,WNW,289,0.0,5.0,90,0.00,,---,0.15,VWS V14.01,2013-09-12 15:15:00,
2013-09-12 10:18:00,71.2,68.1,29.93,WNW,286,4.0,5.0,90,0.00,,---,0.15,VWS V14.01,2013-09-12 15:18:00,
2013-09-12 10:20:00,71.4,68.3,29.93,WNW,283,0.0,6.0,90,0.00,,---,0.15,VWS V14.01,2013-09-12 15:20:00,
2013-09-12 10:23:00,71.7,68.6,29.94,WSW,250,1.0,6.0,90,0.00,,---,0.15,VWS V14.01,2013-09-12 15:23:00,
2013-09-12 10:25:00,71.8,68.4,29.94,WNW,282,3.0,6.0,89,0.00,,---,0.15,VWS V14.01,2013-09-12 15:25:00,
2013-09-12 10:28:00,72.0,68.3,29.94,WNW,283,4.0,7.0,88,0.00,,---,0.15,VWS V14.01,2013-09-12 15:28:00,
2013-09-12 10:29:00,72.0,68.3,29.94,West,281,5.0,7.0,88,0.00,,---,0.15,VWS V14.01,2013-09-12 15:29:00,
2013-09-12 10:30:00,72.1,68.7,29.94,West,278,1.0,1.0,89,0.00,,---,0.15,VWS V14.01,2013-09-12 15:30:00,
2013-09-12 10:31:00,72.1,68.3,29.94,West,278,2.0,2.0,88,0.00,,---,0.15,VWS V14.01,2013-09-12 15:31:00,
2013-09-12 10:34:00,72.3,68.2,29.94,West,280,2.0,7.0,87,0.00,,---,0.15,VWS V14.01,2013-09-12 15:34:00,
2013-09-12 10:35:00,72.4,68.3,29.94,WNW,298,10.0,10.0,87,0.00,,---,0.15,VWS V14.01,2013-09-12 15:35:00,
2013-09-12 10:36:00,72.4,68.3,29.94,WNW,296,5.0,10.0,87,0.00,,---,0.15,VWS V14.01,2013-09-12 15:36:00,
2013-09-12 10:39:00,72.5,68.1,29.94,West,278,6.0,10.0,86,0.00,,---,0.15,VWS V14.01,2013-09-12 15:39:00,
2013-09-12 10:41:00,72.5,68.4,29.94,West,279,1.0,10.0,87,0.00,,---,0.15,VWS V14.01,2013-09-12 15:41:00,
2013-09-12 10:42:00,72.5,68.4,29.94,WNW,288,1.0,10.0,87,0.00,,---,0.15,VWS V14.01,2013-09-12 15:42:00,
2013-09-12 10:44:00,72.5,68.4,29.94,West,279,1.0,10.0,87,0.00,,---,0.15,VWS V14.01,2013-09-12 15:44:00,
2013-09-12 10:46:00,72.7,68.9,29.94,West,279,1.0,10.0,88,0.00,,---,0.15,VWS V14.01,2013-09-12 15:46:00,
2013-09-12 10:47:00,72.8,69.0,29.94,West,273,1.0,10.0,88,0.00,,---,0.15,VWS V14.01,2013-09-12 15:47:00,
2013-09-12 10:49:00,73.0,68.9,29.94,West,279,1.0,10.0,87,0.00,,---,0.15,VWS V14.01,2013-09-12 15:49:00,
2013-09-12 10:51:00,73.0,68.6,29.94,West,279,2.0,10.0,86,0.00,,---,0.15,VWS V14.01,2013-09-12 15:51:00,
2013-09-12 10:52:00,73.1,69.3,29.94,WNW,282,1.0,10.0,88,0.00,,---,0.15,VWS V14.01,2013-09-12 15:52:00,
2013-09-12 10:54:00,73.2,69.1,29.94,West,281,4.0,11.0,87,0.00,,---,0.15,VWS V14.01,2013-09-12 15:54:00,
2013-09-12 10:56:00,73.1,68.7,29.94,West,276,3.0,11.0,86,0.00,,---,0.15,VWS V14.01,2013-09-12 15:56:00,
2013-09-12 10:57:00,73.2,68.8,29.94,West,275,2.0,11.0,86,0.00,,---,0.15,VWS V14.01,2013-09-12 15:57:00,
2013-09-12 10:59:00,73.3,68.9,29.94,WNW,288,4.0,11.0,86,0.00,,---,0.15,VWS V14.01,2013-09-12 15:59:00,
2013-09-12 11:01:00,73.4,68.6,29.94,West,279,5.0,9.0,85,0.00,,---,0.15,VWS V14.01,2013-09-12 16:01:00,
2013-09-12 11:02:00,73.5,68.7,29.94,West,277,6.0,9.0,85,0.00,,---,0.15,VWS V14.01,2013-09-12 16:02:00,
2013-09-12 11:03:00,73.6,68.8,29.94,West,271,5.0,9.0,85,0.00,,---,0.15,VWS V14.01,2013-09-12 16:03:00,
2013-09-12 11:04:00,73.8,69.0,29.94,WNW,282,5.0,9.0,85,0.00,,---,0.15,VWS V14.01,2013-09-12 16:04:00,
2013-09-12 11:06:00,73.8,68.7,29.94,West,281,2.0,9.0,84,0.00,,---,0.15,VWS V14.01,2013-09-12 16:06:00,
2013-09-12 11:07:00,73.8,68.7,29.94,WNW,286,5.0,9.0,84,0.00,,---,0.15,VWS V14.01,2013-09-12 16:07:00,
2013-09-12 11:08:00,73.9,69.1,29.94,West,277,8.0,9.0,85,0.00,,---,0.15,VWS V14.01,2013-09-12 16:08:00,
2013-09-12 11:09:00,73.8,68.3,29.94,WNW,291,6.0,9.0,83,0.00,,---,0.15,VWS V14.01,2013-09-12 16:09:00,
2013-09-12 11:11:00,73.7,68.6,29.94,WNW,288,7.0,10.0,84,0.00,,---,0.15,VWS V14.01,2013-09-12 16:11:00,
2013-09-12 11:12:00,73.7,68.6,29.94,WNW,288,6.0,10.0,84,0.00,,---,0.15,VWS V14.01,2013-09-12 16:12:00,
2013-09-12 11:13:00,73.7,68.6,29.94,WNW,293,6.0,10.0,84,0.00,,---,0.15,VWS V14.01,2013-09-12 16:13:00,
2013-09-12 11:15:00,73.7,68.6,29.94,WNW,285,5.0,10.0,84,0.00,,---,0.15,VWS V14.01,2013-09-12 16:15:00,
2013-09-12 11:16:00,73.7,68.6,29.94,West,280,6.0,10.0,84,0.00,,---,0.15,VWS V14.01,2013-09-12 16:16:00,
2013-09-12 11:17:00,73.7,68.9,29.94,West,274,3.0,10.0,85,0.00,,---,0.15,VWS V14.01,2013-09-12 16:17:00,
2013-09-12 11:18:00,73.8,69.0,29.94,West,281,4.0,10.0,85,0.00,,---,0.15,VWS V14.01,2013-09-12 16:18:00,
2013-09-12 11:19:00,73.9,69.1,29.94,WNW,301,7.0,10.0,85,0.00,,---,0.15,VWS V14.01,2013-09-12 16:19:00,
2013-09-12 11:20:00,74.0,68.9,29.94,WNW,286,7.0,11.0,84,0.00,,---,0.15,VWS V14.01,2013-09-12 16:20:00,
2013-09-12 11:21:00,74.0,68.5,29.94,WNW,285,8.0,11.0,83,0.00,,---,0.15,VWS V14.01,2013-09-12 16:21:00,
2013-09-12 11:22:00,74.0,68.5,29.94,WNW,288,9.0,11.0,83,0.00,,---,0.15,VWS V14.01,2013-09-12 16:22:00,
2013-09-12 11:23:00,73.9,68.1,29.94,West,278,2.0,11.0,82,0.00,,---,0.15,VWS V14.01,2013-09-12 16:23:00,
2013-09-12 11:24:00,74.0,68.5,29.94,WNW,284,6.0,11.0,83,0.00,,---,0.15,VWS V14.01,2013-09-12 16:24:00,
2013-09-12 11:25:00,74.0,68.9,29.94,WNW,282,6.0,11.0,84,0.00,,---,0.15,VWS V14.01,2013-09-12 16:25:00,
2013-09-12 11:26:00,74.1,69.0,29.94,WNW,297,10.0,11.0,84,0.00,,---,0.15,VWS V14.01,2013-09-12 16:26:00,
2013-09-12 11:27:00,74.3,69.2,29.94,WNW,288,9.0,11.0,84,0.00,,---,0.15,VWS V14.01,2013-09-12 16:27:00,
2013-09-12 11:29:00,74.6,68.8,29.94,NW,313,6.0,11.0,82,0.00,,---,0.15,VWS V14.01,2013-09-12 16:29:00,
2013-09-12 11:30:00,74.8,69.7,29.94,NW,308,6.0,11.0,84,0.00,,---,0.15,VWS V14.01,2013-09-12 16:30:00,
2013-09-12 11:31:00,75.2,69.7,29.94,West,278,3.0,9.0,83,0.00,,---,0.15,VWS V14.01,2013-09-12 16:31:00,
2013-09-12 11:32:00,75.3,69.1,29.94,WNW,297,7.0,10.0,81,0.00,,---,0.15,VWS V14.01,2013-09-12 16:32:00,
2013-09-12 11:33:00,75.3,69.4,29.94,WNW,288,6.0,10.0,82,0.00,,---,0.15,VWS V14.01,2013-09-12 16:33:00,
2013-09-12 11:34:00,75.2,68.6,29.94,WNW,300,12.0,12.0,80,0.00,,---,0.15,VWS V14.01,2013-09-12 16:34:00,
2013-09-12 11:35:00,75.2,68.6,29.94,WNW,290,12.0,12.0,80,0.00,,---,0.15,VWS V14.01,2013-09-12 16:35:00,
2013-09-12 11:36:00,75.0,68.4,29.94,WNW,298,8.0,12.0,80,0.00,,---,0.15,VWS V14.01,2013-09-12 16:36:00,
2013-09-12 11:37:00,74.9,68.7,29.94,WNW,292,6.0,12.0,81,0.00,,---,0.15,VWS V14.01,2013-09-12 16:37:00,
2013-09-12 11:38:00,74.8,68.2,29.94,NW,304,6.0,12.0,80,0.00,,---,0.15,VWS V14.01,2013-09-12 16:38:00,
2013-09-12 11:40:00,74.8,68.2,29.94,WNW,283,10.0,13.0,80,0.00,,---,0.15,VWS V14.01,2013-09-12 16:40:00,
2013-09-12 11:41:00,74.8,68.2,29.94,West,276,9.0,13.0,80,0.00,,---,0.15,VWS V14.01,2013-09-12 16:41:00,
2013-09-12 11:43:00,74.8,68.2,29.94,WNW,300,9.0,13.0,80,0.00,,---,0.15,VWS V14.01,2013-09-12 16:43:00,
2013-09-12 11:45:00,75.0,68.1,29.94,West,281,5.0,13.0,79,0.00,,---,0.15,VWS V14.01,2013-09-12 16:45:00,
2013-09-12 11:46:00,75.3,69.1,29.94,WNW,286,4.0,13.0,81,0.00,,---,0.15,VWS V14.01,2013-09-12 16:46:00,
2013-09-12 11:48:00,75.7,68.7,29.94,WNW,284,6.0,13.0,79,0.00,,---,0.15,VWS V14.01,2013-09-12 16:48:00,
2013-09-12 11:49:00,76.0,69.4,29.94,WNW,298,7.0,13.0,80,0.00,,---,0.15,VWS V14.01,2013-09-12 16:49:00,
2013-09-12 11:50:00,76.5,69.5,29.94,West,279,4.0,13.0,79,0.00,,---,0.15,VWS V14.01,2013-09-12 16:50:00,
2013-09-12 11:51:00,76.5,69.5,29.94,WNW,283,7.0,13.0,79,0.00,,---,0.15,VWS V14.01,2013-09-12 16:51:00,
2013-09-12 11:52:00,76.5,68.8,29.94,West,275,9.0,13.0,77,0.00,,---,0.15,VWS V14.01,2013-09-12 16:52:00,
2013-09-12 11:53:00,76.6,68.9,29.94,WNW,286,7.0,13.0,77,0.00,,---,0.15,VWS V14.01,2013-09-12 16:53:00,
2013-09-12 11:54:00,76.8,69.4,29.94,WNW,284,9.0,13.0,78,0.00,,---,0.15,VWS V14.01,2013-09-12 16:54:00,
2013-09-12 11:55:00,76.8,68.3,29.94,WNW,290,11.0,13.0,75,0.00,,---,0.15,VWS V14.01,2013-09-12 16:55:00,
2013-09-12 11:56:00,76.7,68.2,29.94,WNW,294,10.0,13.0,75,0.00,,---,0.15,VWS V14.01,2013-09-12 16:56:00,
2013-09-12 11:57:00,76.7,68.2,29.94,WNW,294,12.0,15.0,75,0.00,,---,0.15,VWS V14.01,2013-09-12 16:57:00,
2013-09-12 11:58:00,76.6,68.1,29.94,West,273,7.0,15.0,75,0.00,,---,0.15,VWS V14.01,2013-09-12 16:58:00,
2013-09-12 11:59:00,76.5,68.0,29.94,WNW,290,6.0,15.0,75,0.00,,---,0.15,VWS V14.01,2013-09-12 16:59:00,
2013-09-12 12:01:00,76.4,67.9,29.94,NW,305,5.0,15.0,75,0.00,,---,0.15,VWS V14.01,2013-09-12 17:01:00,
2013-09-12 12:02:00,76.4,69.4,29.94,WNW,294,6.0,11.0,79,0.00,,---,0.15,VWS V14.01,2013-09-12 17:02:00,
2013-09-12 12:03:00,76.4,69.4,29.94,WNW,296,7.0,11.0,79,0.00,,---,0.15,VWS V14.01,2013-09-12 17:03:00,
2013-09-12 12:05:00,76.6,68.5,29.94,West,269,3.0,12.0,76,0.00,,---,0.15,VWS V14.01,2013-09-12 17:05:00,
2013-09-12 12:06:00,76.6,68.9,29.94,WNW,285,4.0,12.0,77,0.00,,---,0.15,VWS V14.01,2013-09-12 17:06:00,
2013-09-12 12:07:00,76.7,68.6,29.94,WNW,284,6.0,12.0,76,0.00,,---,0.15,VWS V14.01,2013-09-12 17:07:00,
2013-09-12 12:08:00,76.8,69.4,29.94,NW,305,9.0,12.0,78,0.00,,---,0.15,VWS V14.01,2013-09-12 17:08:00,
2013-09-12 12:09:00,77.0,68.9,29.94,WNW,287,11.0,12.0,76,0.00,,---,0.15,VWS V14.01,2013-09-12 17:09:00,
2013-09-12 12:10:00,77.1,69.3,29.94,WNW,284,11.0,12.0,77,0.00,,---,0.15,VWS V14.01,2013-09-12 17:10:00,
2013-09-12 12:11:00,77.1,68.6,29.94,WNW,288,6.0,12.0,75,0.00,,---,0.15,VWS V14.01,2013-09-12 17:11:00,
2013-09-12 12:12:00,77.1,69.0,29.94,West,270,6.0,16.0,76,0.00,,---,0.15,VWS V14.01,2013-09-12 17:12:00,
2013-09-12 12:13:00,76.9,68.4,29.94,WNW,282,12.0,16.0,75,0.00,,---,0.15,VWS V14.01,2013-09-12 17:13:00,
2013-09-12 12:14:00,76.9,68.8,29.94,WNW,290,10.0,16.0,76,0.00,,---,0.15,VWS V14.01,2013-09-12 17:14:00,
2013-09-12 12:16:00,77.1,69.3,29.94,West,275,4.0,16.0,77,0.00,,---,0.15,VWS V14.01,2013-09-12 17:16:00,
2013-09-12 12:17:00,77.4,69.6,29.94,WNW,294,12.0,16.0,77,0.00,,---,0.15,VWS V14.01,2013-09-12 17:17:00,
2013-09-12 12:18:00,77.4,69.2,29.94,WNW,295,15.0,16.0,76,0.00,,---,0.15,VWS V14.01,2013-09-12 17:18:00,
2013-09-12 12:19:00,77.5,69.0,29.94,West,281,9.0,16.0,75,0.00,,---,0.15,VWS V14.01,2013-09-12 17:19:00,
2013-09-12 12:21:00,77.5,69.0,29.94,WNW,289,10.0,16.0,75,0.00,,---,0.15,VWS V14.01,2013-09-12 17:21:00,
2013-09-12 12:22:00,77.5,69.0,29.94,WNW,285,7.0,16.0,75,0.00,,---,0.15,VWS V14.01,2013-09-12 17:22:00,
2013-09-12 12:23:00,77.4,69.6,29.94,WNW,284,14.0,16.0,77,0.00,,---,0.15,VWS V14.01,2013-09-12 17:23:00,
2013-09-12 12:24:00,77.4,69.2,29.94,WNW,282,5.0,16.0,76,0.00,,---,0.15,VWS V14.01,2013-09-12 17:24:00,
2013-09-12 12:26:00,77.5,69.3,29.94,West,279,11.0,16.0,76,0.00,,---,0.15,VWS V14.01,2013-09-12 17:26:00,
2013-09-12 12:28:00,77.8,69.6,29.94,West,271,6.0,16.0,76,0.00,,---,0.15,VWS V14.01,2013-09-12 17:28:00,
2013-09-12 12:30:00,78.0,69.1,29.94,WNW,289,6.0,7.0,74,0.00,,---,0.15,VWS V14.01,2013-09-12 17:30:00,
2013-09-12 12:31:00,78.1,69.1,29.94,NW,325,10.0,10.0,74,0.00,,---,0.15,VWS V14.01,2013-09-12 17:31:00,
2013-09-12 12:32:00,78.1,68.8,29.94,WNW,302,7.0,10.0,73,0.00,,---,0.15,VWS V14.01,2013-09-12 17:32:00,
2013-09-12 12:33:00,78.2,69.2,29.93,WNW,292,10.0,10.0,74,0.00,,---,0.15,VWS V14.01,2013-09-12 17:33:00,
2013-09-12 12:35:00,78.4,69.4,29.93,NW,313,6.0,14.0,74,0.00,,---,0.15,VWS V14.01,2013-09-12 17:35:00,
2013-09-12 12:36:00,78.4,69.0,29.93,WNW,298,9.0,14.0,73,0.00,,---,0.15,VWS V14.01,2013-09-12 17:36:00,
2013-09-12 12:37:00,78.4,68.6,29.93,WNW,294,8.0,14.0,72,0.00,,---,0.15,VWS V14.01,2013-09-12 17:37:00,
2013-09-12 12:38:00,78.2,68.4,29.93,WNW,292,8.0,14.0,72,0.00,,---,0.15,VWS V14.01,2013-09-12 17:38:00,
2013-09-12 12:40:00,78.3,69.3,29.93,WNW,290,10.0,14.0,74,0.00,,---,0.15,VWS V14.01,2013-09-12 17:40:00,
2013-09-12 12:41:00,78.4,69.4,29.93,WNW,287,11.0,14.0,74,0.00,,---,0.15,VWS V14.01,2013-09-12 17:41:00,
2013-09-12 12:42:00,78.5,69.5,29.93,West,281,8.0,14.0,74,0.00,,---,0.15,VWS V14.01,2013-09-12 17:42:00,
2013-09-12 12:43:00,78.6,69.2,29.93,WNW,291,6.0,14.0,73,0.00,,---,0.15,VWS V14.01,2013-09-12 17:43:00,
2013-09-12 12:46:00,78.8,69.4,29.93,West,274,2.0,14.0,73,0.00,,---,0.15,VWS V14.01,2013-09-12 17:46:00,
2013-09-12 12:47:00,78.8,69.4,29.93,WNW,290,14.0,14.0,73,0.00,,---,0.15,VWS V14.01,2013-09-12 17:47:00,
2013-09-12 12:48:00,78.8,69.0,29.93,NW,304,9.0,14.0,72,0.00,,---,0.15,VWS V14.01,2013-09-12 17:48:00,
2013-09-12 12:49:00,78.8,69.0,29.93,West,273,7.0,14.0,72,0.00,,---,0.15,VWS V14.01,2013-09-12 17:49:00,
2013-09-12 12:51:00,78.9,69.1,29.93,West,269,11.0,15.0,72,0.00,,---,0.15,VWS V14.01,2013-09-12 17:51:00,
2013-09-12 12:52:00,78.9,69.1,29.93,NW,312,7.0,15.0,72,0.00,,---,0.15,VWS V14.01,2013-09-12 17:52:00,
2013-09-12 12:53:00,78.9,69.1,29.93,NW,310,7.0,15.0,72,0.00,,---,0.15,VWS V14.01,2013-09-12 17:53:00,
2013-09-12 12:54:00,79.0,69.6,29.93,West,278,2.0,15.0,73,0.00,,---,0.15,VWS V14.01,2013-09-12 17:54:00,
2013-09-12 12:56:00,79.2,69.4,29.93,West,281,6.0,15.0,72,0.00,,---,0.15,VWS V14.01,2013-09-12 17:56:00,
2013-09-12 12:57:00,79.2,69.4,29.93,WNW,284,8.0,15.0,72,0.00,,---,0.15,VWS V14.01,2013-09-12 17:57:00,
2013-09-12 12:58:00,79.2,69.0,29.93,West,275,7.0,15.0,71,0.00,,---,0.15,VWS V14.01,2013-09-12 17:58:00,
2013-09-12 12:59:00,79.2,69.4,29.93,West,275,5.0,15.0,72,0.00,,---,0.15,VWS V14.01,2013-09-12 17:59:00,
2013-09-12 13:01:00,79.2,69.4,29.93,West,260,7.0,11.0,72,0.00,,---,0.15,VWS V14.01,2013-09-12 18:01:00,
2013-09-12 13:03:00,79.1,68.9,29.93,West,268,4.0,11.0,71,0.00,,---,0.15,VWS V14.01,2013-09-12 18:03:00,
2013-09-12 13:04:00,79.3,70.3,29.93,WNW,292,5.0,11.0,74,0.00,,---,0.15,VWS V14.01,2013-09-12 18:04:00,
2013-09-12 13:06:00,79.6,69.4,29.93,WNW,303,11.0,13.0,71,0.00,,---,0.15,VWS V14.01,2013-09-12 18:06:00,
2013-09-12 13:07:00,79.7,69.5,29.93,West,273,5.0,13.0,71,0.00,,---,0.15,VWS V14.01,2013-09-12 18:07:00,
2013-09-12 13:08:00,79.8,69.2,29.93,WNW,290,9.0,13.0,70,0.00,,---,0.15,VWS V14.01,2013-09-12 18:08:00,
2013-09-12 13:09:00,79.8,68.7,29.93,West,273,5.0,13.0,69,0.00,,---,0.15,VWS V14.01,2013-09-12 18:09:00,
2013-09-12 13:11:00,79.7,69.9,29.92,West,277,2.0,13.0,72,0.00,,---,0.15,VWS V14.01,2013-09-12 18:11:00,
2013-09-12 13:12:00,79.8,70.0,29.92,West,277,5.0,13.0,72,0.00,,---,0.15,VWS V14.01,2013-09-12 18:12:00,
2013-09-12 13:13:00,79.8,69.6,29.93,WNW,296,6.0,13.0,71,0.00,,---,0.15,VWS V14.01,2013-09-12 18:13:00,
2013-09-12 13:14:00,79.7,69.5,29.93,WNW,303,5.0,13.0,71,0.00,,---,0.15,VWS V14.01,2013-09-12 18:14:00,
2013-09-12 13:15:00,79.8,69.6,29.93,WNW,303,10.0,13.0,71,0.00,,---,0.15,VWS V14.01,2013-09-12 18:15:00,
2013-09-12 13:17:00,80.1,70.3,29.93,WNW,289,6.0,13.0,72,0.00,,---,0.15,VWS V14.01,2013-09-12 18:17:00,
2013-09-12 13:18:00,80.3,68.8,29.93,NW,309,11.0,15.0,68,0.00,,---,0.15,VWS V14.01,2013-09-12 18:18:00,
2013-09-12 13:19:00,80.3,68.8,29.92,WNW,294,3.0,15.0,68,0.00,,---,0.15,VWS V14.01,2013-09-12 18:19:00,
2013-09-12 13:20:00,80.2,68.3,29.92,WNW,298,8.0,15.0,67,0.00,,---,0.15,VWS V14.01,2013-09-12 18:20:00,
2013-09-12 13:22:00,80.3,68.8,29.92,WNW,288,11.0,15.0,68,0.00,,---,0.15,VWS V14.01,2013-09-12 18:22:00,
2013-09-12 13:23:00,80.2,69.1,29.92,West,277,7.0,15.0,69,0.00,,---,0.15,VWS V14.01,2013-09-12 18:23:00,
2013-09-12 13:25:00,80.1,69.0,29.92,WNW,296,12.0,15.0,69,0.00,,---,0.15,VWS V14.01,2013-09-12 18:25:00,
2013-09-12 13:27:00,79.8,68.3,29.92,WNW,299,9.0,16.0,68,0.00,,---,0.15,VWS V14.01,2013-09-12 18:27:00,
2013-09-12 13:28:00,79.7,68.2,29.92,NW,306,11.0,16.0,68,0.00,,---,0.15,VWS V14.01,2013-09-12 18:28:00,
2013-09-12 13:30:00,79.8,68.7,29.92,NW,315,11.0,16.0,69,0.00,,---,0.15,VWS V14.01,2013-09-12 18:30:00,
2013-09-12 13:31:00,80.0,68.9,29.92,NW,315,7.0,13.0,69,0.00,,---,0.15,VWS V14.01,2013-09-12 18:31:00,
2013-09-12 13:32:00,80.2,69.5,29.92,WNW,299,12.0,17.0,70,0.00,,---,0.15,VWS V14.01,2013-09-12 18:32:00,
2013-09-12 13:33:00,80.4,69.3,29.92,NW,313,6.0,17.0,69,0.00,,---,0.15,VWS V14.01,2013-09-12 18:33:00,
2013-09-12 13:35:00,80.7,69.2,29.92,WNW,292,6.0,17.0,68,0.00,,---,0.15,VWS V14.01,2013-09-12 18:35:00,
2013-09-12 13:36:00,80.9,69.8,29.92,WNW,283,9.0,17.0,69,0.00,,---,0.15,VWS V14.01,2013-09-12 18:36:00,
2013-09-12 13:37:00,80.9,69.8,29.92,WNW,290,10.0,17.0,69,0.00,,---,0.15,VWS V14.01,2013-09-12 18:37:00,
2013-09-12 13:38:00,80.9,69.4,29.92,WNW,300,12.0,17.0,68,0.00,,---,0.15,VWS V14.01,2013-09-12 18:38:00,
2013-09-12 13:40:00,80.9,68.5,29.92,NW,304,8.0,17.0,66,0.00,,---,0.15,VWS V14.01,2013-09-12 18:40:00,
2013-09-12 13:41:00,80.7,68.3,29.92,WNW,282,12.0,17.0,66,0.00,,---,0.15,VWS V14.01,2013-09-12 18:41:00,
2013-09-12 13:42:00,80.6,68.6,29.92,NW,306,7.0,17.0,67,0.00,,---,0.15,VWS V14.01,2013-09-12 18:42:00,
2013-09-12 13:43:00,80.7,69.2,29.91,WNW,284,11.0,17.0,68,0.00,,---,0.15,VWS V14.01,2013-09-12 18:43:00,
2013-09-12 13:44:00,80.7,69.6,29.91,WNW,300,7.0,17.0,69,0.00,,---,0.15,VWS V14.01,2013-09-12 18:44:00,
2013-09-12 13:45:00,80.8,69.3,29.91,WNW,300,15.0,17.0,68,0.00,,---,0.15,VWS V14.01,2013-09-12 18:45:00,
2013-09-12 13:46:00,80.9,68.9,29.91,WNW,284,10.0,17.0,67,0.00,,---,0.15,VWS V14.01,2013-09-12 18:46:00,
2013-09-12 13:47:00,80.9,68.9,29.91,WNW,283,13.0,17.0,67,0.00,,---,0.15,VWS V14.01,2013-09-12 18:47:00,
2013-09-12 13:48:00,80.6,68.6,29.91,WNW,284,9.0,17.0,67,0.00,,---,0.15,VWS V14.01,2013-09-12 18:48:00,
2013-09-12 13:49:00,80.6,69.1,29.91,West,268,4.0,17.0,68,0.00,,---,0.15,VWS V14.01,2013-09-12 18:49:00,
2013-09-12 13:50:00,80.5,69.0,29.91,West,278,10.0,17.0,68,0.00,,---,0.15,VWS V14.01,2013-09-12 18:50:00,
2013-09-12 13:52:00,80.5,69.4,29.91,WNW,288,8.0,17.0,69,0.00,,---,0.15,VWS V14.01,2013-09-12 18:52:00,
2013-09-12 13:53:00,80.5,69.0,29.91,WNW,297,11.0,17.0,68,0.00,,---,0.15,VWS V14.01,2013-09-12 18:53:00,
2013-09-12 13:54:00,80.5,69.0,29.91,West,277,10.0,17.0,68,0.00,,---,0.15,VWS V14.01,2013-09-12 18:54:00,
2013-09-12 13:55:00,80.4,68.9,29.91,West,281,11.0,17.0,68,0.00,,---,0.15,VWS V14.01,2013-09-12 18:55:00,
2013-09-12 13:57:00,80.2,69.1,29.91,WNW,300,10.0,17.0,69,0.00,,---,0.15,VWS V14.01,2013-09-12 18:57:00,
2013-09-12 13:58:00,80.2,69.1,29.91,WNW,299,10.0,17.0,69,0.00,,---,0.15,VWS V14.01,2013-09-12 18:58:00,
2013-09-12 14:00:00,79.9,68.4,29.91,WNW,282,11.0,17.0,68,0.00,,---,0.15,VWS V14.01,2013-09-12 19:00:00,
2013-09-12 14:02:00,79.5,68.0,29.91,WNW,295,13.0,13.0,68,0.00,,---,0.15,VWS V14.01,2013-09-12 19:02:00,
2013-09-12 14:03:00,79.2,68.2,29.91,WNW,301,11.0,13.0,69,0.00,,---,0.15,VWS V14.01,2013-09-12 19:03:00,
2013-09-12 14:05:00,79.1,68.5,29.91,WNW,298,10.0,14.0,70,0.00,,---,0.15,VWS V14.01,2013-09-12 19:05:00,
2013-09-12 14:08:00,79.9,68.8,29.91,WNW,302,9.0,14.0,69,0.00,,---,0.15,VWS V14.01,2013-09-12 19:08:00,
2013-09-12 14:09:00,80.2,69.1,29.90,WNW,290,12.0,14.0,69,0.00,,---,0.15,VWS V14.01,2013-09-12 19:09:00,
2013-09-12 14:10:00,80.8,69.3,29.91,NW,317,4.0,14.0,68,0.00,,---,0.15,VWS V14.01,2013-09-12 19:10:00,
2013-09-12 14:11:00,81.2,69.2,29.90,NW,318,2.0,14.0,67,0.00,,---,0.15,VWS V14.01,2013-09-12 19:11:00,
2013-09-12 14:13:00,81.5,68.6,29.90,NW,311,13.0,16.0,65,0.00,,---,0.15,VWS V14.01,2013-09-12 19:13:00,
2013-09-12 14:14:00,81.6,68.7,29.90,NW,323,9.0,16.0,65,0.00,,---,0.15,VWS V14.01,2013-09-12 19:14:00,
2013-09-12 14:15:00,81.6,68.7,29.90,WNW,288,13.0,16.0,65,0.00,,---,0.15,VWS V14.01,2013-09-12 19:15:00,
2013-09-12 14:17:00,81.5,69.1,29.90,NW,305,9.0,16.0,66,0.00,,---,0.15,VWS V14.01,2013-09-12 19:17:00,
2013-09-12 14:18:00,81.6,68.7,29.90,North,360,7.0,16.0,65,0.00,,---,0.15,VWS V14.01,2013-09-12 19:18:00,
2013-09-12 14:19:00,81.6,68.7,29.90,WNW,286,5.0,16.0,65,0.00,,---,0.15,VWS V14.01,2013-09-12 19:19:00,
2013-09-12 14:20:00,82.1,69.2,29.90,NW,317,15.0,16.0,65,0.00,,---,0.15,VWS V14.01,2013-09-12 19:20:00,
2013-09-12 14:21:00,82.1,69.2,29.90,NNW,344,12.0,16.0,65,0.00,,---,0.15,VWS V14.01,2013-09-12 19:21:00,
2013-09-12 14:22:00,82.1,68.3,29.90,WNW,285,12.0,16.0,63,0.00,,---,0.15,VWS V14.01,2013-09-12 19:22:00,
2013-09-12 14:23:00,82.1,68.7,29.90,WNW,298,9.0,16.0,64,0.00,,---,0.15,VWS V14.01,2013-09-12 19:23:00,
2013-09-12 14:24:00,82.2,68.4,29.90,WNW,289,11.0,16.0,63,0.00,,---,0.15,VWS V14.01,2013-09-12 19:24:00,
2013-09-12 14:26:00,82.1,66.8,29.90,WNW,294,16.0,19.0,60,0.00,,---,0.15,VWS V14.01,2013-09-12 19:26:00,
2013-09-12 14:27:00,82.0,67.7,29.90,WNW,286,11.0,19.0,62,0.00,,---,0.15,VWS V14.01,2013-09-12 19:27:00,
2013-09-12 14:28:00,82.1,67.8,29.90,West,278,7.0,19.0,62,0.00,,---,0.15,VWS V14.01,2013-09-12 19:28:00,
2013-09-12 14:29:00,82.2,67.9,29.90,WNW,290,10.0,19.0,62,0.00,,---,0.15,VWS V14.01,2013-09-12 19:29:00,
2013-09-12 14:31:00,82.4,66.7,29.90,WNW,290,12.0,14.0,59,0.00,,---,0.15,VWS V14.01,2013-09-12 19:31:00,
2013-09-12 14:33:00,82.7,66.4,29.90,NW,308,13.0,14.0,58,0.00,,---,0.15,VWS V14.01,2013-09-12 19:33:00,
2013-09-12 14:34:00,82.9,66.1,29.90,NW,305,9.0,15.0,57,0.00,,---,0.15,VWS V14.01,2013-09-12 19:34:00,
2013-09-12 14:36:00,83.1,66.3,29.90,WNW,290,12.0,16.0,57,0.00,,---,0.15,VWS V14.01,2013-09-12 19:36:00,
2013-09-12 14:38:00,83.0,65.2,29.90,WNW,292,8.0,16.0,55,0.00,,---,0.15,VWS V14.01,2013-09-12 19:38:00,
2013-09-12 14:39:00,82.9,65.6,29.90,WNW,289,13.0,16.0,56,0.00,,---,0.15,VWS V14.01,2013-09-12 19:39:00,
2013-09-12 14:41:00,82.8,65.5,29.89,WNW,298,11.0,16.0,56,0.00,,---,0.15,VWS V14.01,2013-09-12 19:41:00,
2013-09-12 14:43:00,82.9,65.1,29.89,NW,313,15.0,16.0,55,0.00,,---,0.15,VWS V14.01,2013-09-12 19:43:00,
2013-09-12 14:44:00,82.9,65.1,29.89,WNW,298,11.0,16.0,55,0.00,,---,0.15,VWS V14.01,2013-09-12 19:44:00,
2013-09-12 14:46:00,83.3,63.9,29.89,NNW,337,2.0,16.0,52,0.00,,---,0.15,VWS V14.01,2013-09-12 19:46:00,
2013-09-12 14:48:00,83.4,63.4,29.90,NW,313,9.0,17.0,51,0.00,,---,0.15,VWS V14.01,2013-09-12 19:48:00,
2013-09-12 14:49:00,83.3,63.3,29.90,WNW,292,11.0,17.0,51,0.00,,---,0.15,VWS V14.01,2013-09-12 19:49:00,
2013-09-12 14:51:00,83.1,63.7,29.89,NW,310,11.0,17.0,52,0.00,,---,0.15,VWS V14.01,2013-09-12 19:51:00,
2013-09-12 14:54:00,82.9,63.5,29.89,NW,319,8.0,17.0,52,0.00,,---,0.15,VWS V14.01,2013-09-12 19:54:00,
2013-09-12 14:57:00,82.7,61.6,29.89,NNW,340,4.0,17.0,49,0.00,,---,0.15,VWS V14.01,2013-09-12 19:57:00,
2013-09-12 14:59:00,82.8,61.7,29.89,NNW,344,9.0,17.0,49,0.00,,---,0.15,VWS V14.01,2013-09-12 19:59:00,
2013-09-12 15:02:00,82.9,61.2,29.89,NNW,341,6.0,12.0,48,0.00,,---,0.15,VWS V14.01,2013-09-12 20:02:00,
2013-09-12 15:04:00,83.0,61.3,29.89,WNW,298,5.0,13.0,48,0.00,,---,0.15,VWS V14.01,2013-09-12 20:04:00,
2013-09-12 15:07:00,83.2,60.3,29.89,WNW,301,10.0,13.0,46,0.00,,---,0.15,VWS V14.01,2013-09-12 20:07:00,
2013-09-12 15:09:00,83.2,60.3,29.89,WNW,295,10.0,13.0,46,0.00,,---,0.15,VWS V14.01,2013-09-12 20:09:00,
2013-09-12 15:10:00,83.2,59.7,29.89,WNW,292,7.0,14.0,45,0.00,,---,0.15,VWS V14.01,2013-09-12 20:10:00,
2013-09-12 15:12:00,83.3,59.1,29.89,WNW,294,10.0,20.0,44,0.00,,---,0.15,VWS V14.01,2013-09-12 20:12:00,
2013-09-12 15:14:00,83.0,57.6,29.89,NW,309,12.0,20.0,42,0.00,,---,0.15,VWS V14.01,2013-09-12 20:14:00,
2013-09-12 15:15:00,83.0,57.6,29.89,NW,311,10.0,20.0,42,0.00,,---,0.15,VWS V14.01,2013-09-12 20:15:00,
2013-09-12 15:17:00,82.8,57.4,29.89,NW,304,5.0,20.0,42,0.00,,---,0.15,VWS V14.01,2013-09-12 20:17:00,
2013-09-12 15:19:00,82.9,58.1,29.89,West,280,7.0,20.0,43,0.00,,---,0.15,VWS V14.01,2013-09-12 20:19:00,
2013-09-12 15:20:00,82.9,58.1,29.89,WNW,288,12.0,20.0,43,0.00,,---,0.15,VWS V14.01,2013-09-12 20:20:00,
2013-09-12 15:21:00,82.9,57.5,29.89,NNW,340,9.0,22.0,42,0.00,,---,0.15,VWS V14.01,2013-09-12 20:21:00,
2013-09-12 15:22:00,82.9,56.8,29.89,WNW,298,10.0,22.0,41,0.00,,---,0.15,VWS V14.01,2013-09-12 20:22:00,
2013-09-12 15:24:00,82.8,56.7,29.89,NW,313,12.0,22.0,41,0.00,,---,0.15,VWS V14.01,2013-09-12 20:24:00,
2013-09-12 15:25:00,82.8,56.0,29.89,NNW,337,8.0,22.0,40,0.00,,---,0.15,VWS V14.01,2013-09-12 20:25:00,
2013-09-12 15:26:00,82.7,56.0,29.89,North,355,4.0,22.0,40,0.00,,---,0.15,VWS V14.01,2013-09-12 20:26:00,
2013-09-12 15:28:00,82.6,55.9,29.89,NW,309,16.0,22.0,40,0.00,,---,0.15,VWS V14.01,2013-09-12 20:28:00,
2013-09-12 15:29:00,82.4,55.7,29.89,WNW,296,14.0,22.0,40,0.00,,---,0.15,VWS V14.01,2013-09-12 20:29:00,
2013-09-12 15:30:00,82.3,55.6,29.89,NW,315,7.0,22.0,40,0.00,,---,0.15,VWS V14.01,2013-09-12 20:30:00,
2013-09-12 15:31:00,82.3,56.3,29.89,NW,318,4.0,5.0,41,0.00,,---,0.15,VWS V14.01,2013-09-12 20:31:00,
2013-09-12 15:33:00,82.3,56.9,29.89,NNW,329,3.0,10.0,42,0.00,,---,0.15,VWS V14.01,2013-09-12 20:33:00,
2013-09-12 15:34:00,82.5,56.5,29.89,WNW,293,11.0,12.0,41,0.00,,---,0.15,VWS V14.01,2013-09-12 20:34:00,
2013-09-12 15:35:00,82.6,55.9,29.89,NW,304,11.0,13.0,40,0.00,,---,0.15,VWS V14.01,2013-09-12 20:35:00,
2013-09-12 15:36:00,82.6,56.5,29.89,WNW,301,10.0,13.0,41,0.00,,---,0.15,VWS V14.01,2013-09-12 20:36:00,
2013-09-12 15:38:00,82.8,54.6,29.89,WNW,293,15.0,15.0,38,0.00,,---,0.15,VWS V14.01,2013-09-12 20:38:00,
2013-09-12 15:39:00,82.7,54.5,29.89,NNW,329,8.0,15.0,38,0.00,,---,0.15,VWS V14.01,2013-09-12 20:39:00,
2013-09-12 15:40:00,82.6,55.2,29.89,NNE,15,9.0,15.0,39,0.00,,---,0.15,VWS V14.01,2013-09-12 20:40:00,
2013-09-12 15:41:00,82.6,55.2,29.89,NW,319,6.0,15.0,39,0.00,,---,0.15,VWS V14.01,2013-09-12 20:41:00,
2013-09-12 15:43:00,82.6,54.5,29.89,WNW,302,7.0,20.0,38,0.00,,---,0.15,VWS V14.01,2013-09-12 20:43:00,
2013-09-12 15:44:00,82.5,52.9,29.89,WNW,287,11.0,20.0,36,0.00,,---,0.15,VWS V14.01,2013-09-12 20:44:00,
2013-09-12 15:45:00,82.4,53.5,29.89,WNW,295,15.0,20.0,37,0.00,,---,0.15,VWS V14.01,2013-09-12 20:45:00,
2013-09-12 15:46:00,82.4,55.0,29.89,WNW,300,11.0,20.0,39,0.00,,---,0.15,VWS V14.01,2013-09-12 20:46:00,
2013-09-12 15:47:00,82.4,54.3,29.89,NW,323,9.0,20.0,38,0.00,,---,0.15,VWS V14.01,2013-09-12 20:47:00,
2013-09-12 15:48:00,82.4,53.5,29.88,NW,306,11.0,20.0,37,0.00,,---,0.15,VWS V14.01,2013-09-12 20:48:00,
2013-09-12 15:49:00,82.4,53.5,29.88,WNW,292,10.0,20.0,37,0.00,,---,0.15,VWS V14.01,2013-09-12 20:49:00,
2013-09-12 15:51:00,82.5,54.4,29.88,NNW,333,3.0,20.0,38,0.00,,---,0.15,VWS V14.01,2013-09-12 20:51:00,
2013-09-12 15:54:00,82.5,55.1,29.89,WNW,298,7.0,20.0,39,0.00,,---,0.15,VWS V14.01,2013-09-12 20:54:00,
2013-09-12 15:55:00,82.3,54.2,29.89,North,360,4.0,20.0,38,0.00,,---,0.15,VWS V14.01,2013-09-12 20:55:00,
2013-09-12 15:56:00,82.3,54.9,29.89,WNW,298,10.0,20.0,39,0.00,,---,0.15,VWS V14.01,2013-09-12 20:56:00,
2013-09-12 15:59:00,82.4,56.4,29.89,WNW,288,8.0,20.0,41,0.00,,---,0.15,VWS V14.01,2013-09-12 20:59:00,
2013-09-12 16:00:00,82.3,54.9,29.89,NNW,329,9.0,20.0,39,0.00,,---,0.15,VWS V14.01,2013-09-12 21:00:00,
2013-09-12 16:01:00,82.1,54.7,29.89,WNW,284,12.0,14.0,39,0.00,,---,0.15,VWS V14.01,2013-09-12 21:01:00,
2013-09-12 16:04:00,81.8,55.1,29.89,NW,305,6.0,14.0,40,0.00,,---,0.15,VWS V14.01,2013-09-12 21:04:00,
2013-09-12 16:05:00,81.8,55.1,29.89,NW,305,4.0,14.0,40,0.00,,---,0.15,VWS V14.01,2013-09-12 21:05:00,
2013-09-12 16:06:00,81.8,55.8,29.88,NNW,327,6.0,14.0,41,0.00,,---,0.15,VWS V14.01,2013-09-12 21:06:00,
2013-09-12 16:07:00,81.8,56.5,29.89,NNW,340,1.0,14.0,42,0.00,,---,0.15,VWS V14.01,2013-09-12 21:07:00,
2013-09-12 16:09:00,82.0,55.3,29.89,WNW,294,7.0,14.0,40,0.00,,---,0.15,VWS V14.01,2013-09-12 21:09:00,
2013-09-12 16:10:00,82.0,54.6,29.89,NW,305,4.0,14.0,39,0.00,,---,0.15,VWS V14.01,2013-09-12 21:10:00,
2013-09-12 16:11:00,82.0,54.6,29.89,NNE,17,3.0,14.0,39,0.00,,---,0.15,VWS V14.01,2013-09-12 21:11:00,
2013-09-12 16:12:00,82.0,53.9,29.88,WNW,303,3.0,14.0,38,0.00,,---,0.15,VWS V14.01,2013-09-12 21:12:00,
2013-09-12 16:13:00,82.0,53.9,29.88,North,355,3.0,14.0,38,0.00,,---,0.15,VWS V14.01,2013-09-12 21:13:00,
2013-09-12 16:14:00,82.1,54.7,29.88,WNW,291,6.0,14.0,39,0.00,,---,0.15,VWS V14.01,2013-09-12 21:14:00,
2013-09-12 16:15:00,82.1,54.0,29.89,NW,323,8.0,14.0,38,0.00,,---,0.15,VWS V14.01,2013-09-12 21:15:00,
2013-09-12 16:16:00,82.1,53.3,29.89,NNW,343,2.0,14.0,37,0.00,,---,0.15,VWS V14.01,2013-09-12 21:16:00,
2013-09-12 16:17:00,82.1,53.3,29.89,WNW,292,7.0,14.0,37,0.00,,---,0.15,VWS V14.01,2013-09-12 21:17:00,
2013-09-12 16:18:00,82.0,53.9,29.89,NW,304,6.0,14.0,38,0.00,,---,0.15,VWS V14.01,2013-09-12 21:18:00,
2013-09-12 16:19:00,82.0,53.9,29.89,WNW,303,5.0,14.0,38,0.00,,---,0.15,VWS V14.01,2013-09-12 21:19:00,
2013-09-12 16:20:00,82.0,54.6,29.89,North,355,2.0,14.0,39,0.00,,---,0.15,VWS V14.01,2013-09-12 21:20:00,
2013-09-12 16:21:00,82.0,53.9,29.88,WNW,302,9.0,14.0,38,0.00,,---,0.15,VWS V14.01,2013-09-12 21:21:00,
2013-09-12 16:22:00,81.9,53.8,29.89,WNW,297,3.0,14.0,38,0.00,,---,0.15,VWS V14.01,2013-09-12 21:22:00,
2013-09-12 16:24:00,82.1,55.4,29.89,WNW,292,6.0,14.0,40,0.00,,---,0.15,VWS V14.01,2013-09-12 21:24:00,
2013-09-12 16:25:00,82.1,52.5,29.88,NW,318,9.0,14.0,36,0.00,,---,0.15,VWS V14.01,2013-09-12 21:25:00,
2013-09-12 16:26:00,82.1,53.3,29.89,North,9,4.0,14.0,37,0.00,,---,0.15,VWS V14.01,2013-09-12 21:26:00,
2013-09-12 16:27:00,82.1,53.3,29.89,NNE,23,4.0,14.0,37,0.00,,---,0.15,VWS V14.01,2013-09-12 21:27:00,
2013-09-12 16:29:00,82.0,52.4,29.89,NE,35,2.0,14.0,36,0.00,,---,0.15,VWS V14.01,2013-09-12 21:29:00,
2013-09-12 16:30:00,82.0,53.2,29.89,NNW,342,4.0,14.0,37,0.00,,---,0.15,VWS V14.01,2013-09-12 21:30:00,
2013-09-12 16:32:00,81.9,52.3,29.88,NNE,18,4.0,11.0,36,0.00,,---,0.15,VWS V14.01,2013-09-12 21:32:00,
2013-09-12 16:33:00,81.8,52.3,29.89,WNW,299,7.0,11.0,36,0.00,,---,0.15,VWS V14.01,2013-09-12 21:33:00,
2013-09-12 16:34:00,81.7,52.2,29.89,NNW,348,3.0,11.0,36,0.00,,---,0.15,VWS V14.01,2013-09-12 21:34:00,
2013-09-12 16:35:00,81.6,52.1,29.89,NW,311,10.0,12.0,36,0.00,,---,0.15,VWS V14.01,2013-09-12 21:35:00,
2013-09-12 16:37:00,81.6,52.1,29.89,NNW,333,9.0,12.0,36,0.00,,---,0.15,VWS V14.01,2013-09-12 21:37:00,
2013-09-12 16:38:00,81.6,52.1,29.89,North,349,5.0,12.0,36,0.00,,---,0.15,VWS V14.01,2013-09-12 21:38:00,
2013-09-12 16:39:00,81.5,51.2,29.89,NNW,334,3.0,12.0,35,0.00,,---,0.15,VWS V14.01,2013-09-12 21:39:00,
2013-09-12 16:40:00,81.5,51.2,29.88,NNE,13,2.0,12.0,35,0.00,,---,0.15,VWS V14.01,2013-09-12 21:40:00,
2013-09-12 16:42:00,81.6,52.1,29.89,NW,323,3.0,12.0,36,0.00,,---,0.15,VWS V14.01,2013-09-12 21:42:00,
2013-09-12 16:43:00,81.6,52.1,29.88,NW,311,3.0,12.0,36,0.00,,---,0.15,VWS V14.01,2013-09-12 21:43:00,
2013-09-12 16:44:00,81.6,51.3,29.88,North,355,4.0,12.0,35,0.00,,---,0.15,VWS V14.01,2013-09-12 21:44:00,
2013-09-12 16:45:00,81.6,51.3,29.88,WNW,286,3.0,12.0,35,0.00,,---,0.15,VWS V14.01,2013-09-12 21:45:00,
2013-09-12 16:47:00,81.7,52.2,29.89,NNW,342,4.0,12.0,36,0.00,,---,0.15,VWS V14.01,2013-09-12 21:47:00,
2013-09-12 16:48:00,81.6,51.3,29.89,NW,319,5.0,12.0,35,0.00,,---,0.15,VWS V14.01,2013-09-12 21:48:00,
2013-09-12 16:49:00,81.6,51.3,29.89,NW,319,5.0,12.0,35,0.00,,---,0.15,VWS V14.01,2013-09-12 21:49:00,
2013-09-12 16:50:00,81.6,51.3,29.89,NW,313,5.0,12.0,35,0.00,,---,0.15,VWS V14.01,2013-09-12 21:50:00,
2013-09-12 16:52:00,81.3,51.8,29.89,NW,309,11.0,12.0,36,0.00,,---,0.15,VWS V14.01,2013-09-12 21:52:00,
2013-09-12 16:54:00,81.1,50.9,29.88,WNW,289,6.0,14.0,35,0.00,,---,0.15,VWS V14.01,2013-09-12 21:54:00,
2013-09-12 16:55:00,81.1,51.7,29.88,WNW,291,4.0,14.0,36,0.00,,---,0.15,VWS V14.01,2013-09-12 21:55:00,
2013-09-12 16:57:00,81.1,50.9,29.89,NW,306,5.0,14.0,35,0.00,,---,0.15,VWS V14.01,2013-09-12 21:57:00,
2013-09-12 16:59:00,81.0,51.6,29.88,North,360,3.0,14.0,36,0.00,,---,0.15,VWS V14.01,2013-09-12 21:59:00,
2013-09-12 17:00:00,81.0,50.8,29.89,North,355,4.0,6.0,35,0.00,,---,0.15,VWS V14.01,2013-09-12 22:00:00,
2013-09-12 17:01:00,80.9,50.7,29.89,NW,313,14.0,14.0,35,0.00,,---,0.15,VWS V14.01,2013-09-12 22:01:00,
2013-09-12 17:02:00,80.8,50.6,29.89,NW,325,9.0,14.0,35,0.00,,---,0.15,VWS V14.01,2013-09-12 22:02:00,
2013-09-12 17:04:00,80.7,51.3,29.88,WNW,296,9.0,14.0,36,0.00,,---,0.15,VWS V14.01,2013-09-12 22:04:00,
2013-09-12 17:05:00,80.7,50.5,29.89,NW,321,3.0,14.0,35,0.00,,---,0.15,VWS V14.01,2013-09-12 22:05:00,
2013-09-12 17:06:00,80.5,50.4,29.88,North,360,3.0,14.0,35,0.00,,---,0.15,VWS V14.01,2013-09-12 22:06:00,
2013-09-12 17:08:00,80.3,50.2,29.88,NNW,343,5.0,14.0,35,0.00,,---,0.15,VWS V14.01,2013-09-12 22:08:00,
2013-09-12 17:09:00,80.3,50.2,29.89,NNW,344,3.0,14.0,35,0.00,,---,0.15,VWS V14.01,2013-09-12 22:09:00,
2013-09-12 17:10:00,80.2,50.1,29.89,NNW,339,2.0,14.0,35,0.00,,---,0.15,VWS V14.01,2013-09-12 22:10:00,
2013-09-12 17:11:00,80.2,50.8,29.88,NE,43,6.0,14.0,36,0.00,,---,0.15,VWS V14.01,2013-09-12 22:11:00,
2013-09-12 17:13:00,80.1,50.0,29.88,WNW,294,2.0,14.0,35,0.00,,---,0.15,VWS V14.01,2013-09-12 22:13:00,
2013-09-12 17:14:00,80.0,50.7,29.88,WNW,288,5.0,14.0,36,0.00,,---,0.15,VWS V14.01,2013-09-12 22:14:00,
2013-09-12 17:15:00,80.0,49.9,29.88,WNW,297,4.0,14.0,35,0.00,,---,0.15,VWS V14.01,2013-09-12 22:15:00,
2013-09-12 17:16:00,79.9,50.6,29.88,North,350,3.0,14.0,36,0.00,,---,0.15,VWS V14.01,2013-09-12 22:16:00,
2013-09-12 17:17:00,79.9,51.3,29.88,WNW,296,12.0,14.0,37,0.00,,---,0.15,VWS V14.01,2013-09-12 22:17:00,
2013-09-12 17:18:00,79.9,50.6,29.88,NNW,336,2.0,14.0,36,0.00,,---,0.15,VWS V14.01,2013-09-12 22:18:00,
2013-09-12 17:19:00,79.9,50.6,29.88,North,355,3.0,14.0,36,0.00,,---,0.15,VWS V14.01,2013-09-12 22:19:00,
2013-09-12 17:20:00,79.8,50.5,29.88,North,360,3.0,14.0,36,0.00,,---,0.15,VWS V14.01,2013-09-12 22:20:00,
2013-09-12 17:21:00,79.8,50.5,29.89,WNW,296,7.0,14.0,36,0.00,,---,0.15,VWS V14.01,2013-09-12 22:21:00,
2013-09-12 17:22:00,79.8,52.0,29.89,NW,313,4.0,14.0,38,0.00,,---,0.15,VWS V14.01,2013-09-12 22:22:00,
2013-09-12 17:23:00,79.8,50.5,29.88,NNW,332,3.0,14.0,36,0.00,,---,0.15,VWS V14.01,2013-09-12 22:23:00,
2013-09-12 17:24:00,79.8,51.2,29.89,NW,306,3.0,14.0,37,0.00,,---,0.15,VWS V14.01,2013-09-12 22:24:00,
2013-09-12 17:25:00,79.8,51.2,29.89,NNW,331,6.0,14.0,37,0.00,,---,0.15,VWS V14.01,2013-09-12 22:25:00,
2013-09-12 17:26:00,79.8,49.7,29.89,North,355,4.0,14.0,35,0.00,,---,0.15,VWS V14.01,2013-09-12 22:26:00,
2013-09-12 17:27:00,79.8,49.7,29.89,NW,305,4.0,14.0,35,0.00,,---,0.15,VWS V14.01,2013-09-12 22:27:00,
2013-09-12 17:28:00,79.7,50.4,29.89,ENE,59,6.0,14.0,36,0.00,,---,0.15,VWS V14.01,2013-09-12 22:28:00,
2013-09-12 17:29:00,79.7,50.4,29.89,NW,305,2.0,14.0,36,0.00,,---,0.15,VWS V14.01,2013-09-12 22:29:00,
2013-09-12 17:31:00,79.6,50.3,29.89,NNE,19,1.0,6.0,36,0.00,,---,0.15,VWS V14.01,2013-09-12 22:31:00,
2013-09-12 17:32:00,79.6,49.6,29.89,WNW,292,4.0,10.0,35,0.00,,---,0.15,VWS V14.01,2013-09-12 22:32:00,
2013-09-12 17:33:00,79.5,49.5,29.89,NW,312,3.0,10.0,35,0.00,,---,0.15,VWS V14.01,2013-09-12 22:33:00,
2013-09-12 17:34:00,79.5,50.2,29.89,North,5,4.0,10.0,36,0.00,,---,0.15,VWS V14.01,2013-09-12 22:34:00,
2013-09-12 17:36:00,79.3,50.1,29.89,WNW,282,6.0,12.0,36,0.00,,---,0.15,VWS V14.01,2013-09-12 22:36:00,
2013-09-12 17:37:00,79.3,50.1,29.89,North,350,5.0,12.0,36,0.00,,---,0.15,VWS V14.01,2013-09-12 22:37:00,
2013-09-12 17:39:00,79.2,50.0,29.89,NW,321,3.0,12.0,36,0.00,,---,0.15,VWS V14.01,2013-09-12 22:39:00,
2013-09-12 17:41:00,79.1,49.9,29.89,NNW,344,4.0,12.0,36,0.00,,---,0.15,VWS V14.01,2013-09-12 22:41:00,
2013-09-12 17:42:00,79.0,49.8,29.89,NNW,329,3.0,12.0,36,0.00,,---,0.15,VWS V14.01,2013-09-12 22:42:00,
2013-09-12 17:44:00,78.9,50.4,29.89,NNE,23,3.0,12.0,37,0.00,,---,0.15,VWS V14.01,2013-09-12 22:44:00,
2013-09-12 17:46:00,78.9,50.4,29.89,North,355,4.0,12.0,37,0.00,,---,0.15,VWS V14.01,2013-09-12 22:46:00,
2013-09-12 17:47:00,78.8,50.4,29.89,WNW,302,7.0,12.0,37,0.00,,---,0.15,VWS V14.01,2013-09-12 22:47:00,
2013-09-12 17:48:00,78.8,50.4,29.89,NNW,330,2.0,12.0,37,0.00,,---,0.15,VWS V14.01,2013-09-12 22:48:00,
2013-09-12 17:49:00,78.7,49.5,29.89,NNW,344,3.0,12.0,36,0.00,,---,0.15,VWS V14.01,2013-09-12 22:49:00,
2013-09-12 17:51:00,78.6,50.2,29.89,NW,314,5.0,12.0,37,0.00,,---,0.15,VWS V14.01,2013-09-12 22:51:00,
2013-09-12 17:52:00,78.6,50.9,29.89,NW,306,1.0,12.0,38,0.00,,---,0.15,VWS V14.01,2013-09-12 22:52:00,
2013-09-12 17:53:00,78.6,50.9,29.89,NNE,14,4.0,12.0,38,0.00,,---,0.15,VWS V14.01,2013-09-12 22:53:00,
2013-09-12 17:54:00,78.5,50.1,29.89,North,5,2.0,12.0,37,0.00,,---,0.15,VWS V14.01,2013-09-12 22:54:00,
2013-09-12 17:57:00,78.4,51.4,29.89,NNW,338,4.0,12.0,39,0.00,,---,0.15,VWS V14.01,2013-09-12 22:57:00,
2013-09-12 17:58:00,78.4,50.7,29.89,North,5,2.0,12.0,38,0.00,,---,0.15,VWS V14.01,2013-09-12 22:58:00,
2013-09-12 17:59:00,78.3,50.6,29.89,NNW,331,2.0,12.0,38,0.00,,---,0.15,VWS V14.01,2013-09-12 22:59:00,
2013-09-12 18:00:00,78.3,50.6,29.89,North,355,0.0,12.0,38,0.00,,---,0.15,VWS V14.01,2013-09-12 23:00:00,
2013-09-12 18:02:00,78.2,50.5,29.89,NNW,327,2.0,6.0,38,0.00,,---,0.15,VWS V14.01,2013-09-12 23:02:00,
2013-09-12 18:03:00,78.1,50.5,29.89,North,349,3.0,6.0,38,0.00,,---,0.15,VWS V14.01,2013-09-12 23:03:00,
2013-09-12 18:04:00,78.0,50.4,29.89,North,355,3.0,6.0,38,0.00,,---,0.15,VWS V14.01,2013-09-12 23:04:00,
2013-09-12 18:05:00,78.0,50.4,29.89,North,349,2.0,6.0,38,0.00,,---,0.15,VWS V14.01,2013-09-12 23:05:00,
2013-09-12 18:07:00,77.9,50.3,29.89,WNW,290,3.0,7.0,38,0.00,,---,0.15,VWS V14.01,2013-09-12 23:07:00,
2013-09-12 18:08:00,77.9,49.6,29.89,NNW,344,3.0,7.0,37,0.00,,---,0.15,VWS V14.01,2013-09-12 23:08:00,
2013-09-12 18:09:00,77.8,49.5,29.89,North,5,1.0,7.0,37,0.00,,---,0.15,VWS V14.01,2013-09-12 23:09:00,
2013-09-12 18:10:00,77.8,49.5,29.89,North,5,1.0,7.0,37,0.00,,---,0.15,VWS V14.01,2013-09-12 23:10:00,
2013-09-12 18:12:00,77.7,49.4,29.89,NNW,339,2.0,10.0,37,0.00,,---,0.15,VWS V14.01,2013-09-12 23:12:00,
2013-09-12 18:13:00,77.6,50.0,29.89,WNW,292,2.0,10.0,38,0.00,,---,0.15,VWS V14.01,2013-09-12 23:13:00,
2013-09-12 18:14:00,77.6,50.0,29.89,North,5,5.0,10.0,38,0.00,,---,0.15,VWS V14.01,2013-09-12 23:14:00,
2013-09-12 18:15:00,77.6,49.3,29.89,NNW,339,3.0,10.0,37,0.00,,---,0.15,VWS V14.01,2013-09-12 23:15:00,
2013-09-12 18:17:00,77.4,49.1,29.89,NNW,339,3.0,10.0,37,0.00,,---,0.15,VWS V14.01,2013-09-12 23:17:00,
2013-09-12 18:18:00,77.4,50.5,29.89,NNE,30,2.0,10.0,39,0.00,,---,0.15,VWS V14.01,2013-09-12 23:18:00,
2013-09-12 18:20:00,77.3,49.7,29.89,NW,311,2.0,10.0,38,0.00,,---,0.15,VWS V14.01,2013-09-12 23:20:00,
2013-09-12 18:22:00,77.1,49.6,29.89,NNW,348,2.0,10.0,38,0.00,,---,0.15,VWS V14.01,2013-09-12 23:22:00,
2013-09-12 18:23:00,77.0,49.5,29.89,WNW,291,4.0,10.0,38,0.00,,---,0.15,VWS V14.01,2013-09-12 23:23:00,
2013-09-12 18:25:00,76.9,50.1,29.89,NNE,24,3.0,10.0,39,0.00,,---,0.15,VWS V14.01,2013-09-12 23:25:00,
2013-09-12 18:26:00,76.8,49.3,29.89,NW,313,4.0,10.0,38,0.00,,---,0.15,VWS V14.01,2013-09-12 23:26:00,
2013-09-12 18:27:00,76.8,50.0,29.89,NW,317,3.0,10.0,39,0.00,,---,0.15,VWS V14.01,2013-09-12 23:27:00,
2013-09-12 18:28:00,76.6,49.8,29.90,NE,34,3.0,10.0,39,0.00,,---,0.15,VWS V14.01,2013-09-12 23:28:00,
2013-09-12 18:30:00,76.6,49.8,29.90,North,10,1.0,10.0,39,0.00,,---,0.15,VWS V14.01,2013-09-12 23:30:00,
2013-09-12 18:31:00,76.5,50.4,29.90,NW,309,1.0,2.0,40,0.00,,---,0.15,VWS V14.01,2013-09-12 23:31:00,
2013-09-12 18:32:00,76.5,49.7,29.90,NNW,343,0.0,6.0,39,0.00,,---,0.15,VWS V14.01,2013-09-12 23:32:00,
2013-09-12 18:33:00,76.4,49.6,29.90,NNW,330,2.0,6.0,39,0.00,,---,0.15,VWS V14.01,2013-09-12 23:33:00,
2013-09-12 18:35:00,76.3,50.2,29.90,North,355,3.0,9.0,40,0.00,,---,0.15,VWS V14.01,2013-09-12 23:35:00,
2013-09-12 18:36:00,76.3,49.5,29.90,NNW,346,1.0,9.0,39,0.00,,---,0.15,VWS V14.01,2013-09-12 23:36:00,
2013-09-12 18:37:00,76.3,49.5,29.90,North,360,2.0,9.0,39,0.00,,---,0.15,VWS V14.01,2013-09-12 23:37:00,
2013-09-12 18:39:00,76.2,49.5,29.90,WNW,300,2.0,9.0,39,0.00,,---,0.15,VWS V14.01,2013-09-12 23:39:00,
2013-09-12 18:40:00,76.2,49.5,29.90,NNW,347,2.0,9.0,39,0.00,,---,0.15,VWS V14.01,2013-09-12 23:40:00,
2013-09-12 18:41:00,76.2,49.5,29.90,NNW,333,0.0,9.0,39,0.00,,---,0.15,VWS V14.01,2013-09-12 23:41:00,
2013-09-12 18:42:00,76.1,49.4,29.90,NW,323,1.0,9.0,39,0.00,,---,0.15,VWS V14.01,2013-09-12 23:42:00,
2013-09-12 18:44:00,76.0,49.3,29.90,North,5,2.0,9.0,39,0.00,,---,0.15,VWS V14.01,2013-09-12 23:44:00,
2013-09-12 18:45:00,76.0,49.3,29.90,NW,321,0.0,9.0,39,0.00,,---,0.15,VWS V14.01,2013-09-12 23:45:00,
2013-09-12 18:46:00,75.9,49.2,29.90,NNW,345,1.0,9.0,39,0.00,,---,0.15,VWS V14.01,2013-09-12 23:46:00,
2013-09-12 18:47:00,75.9,49.9,29.90,WNW,302,1.0,9.0,40,0.00,,---,0.15,VWS V14.01,2013-09-12 23:47:00,
2013-09-12 18:49:00,75.7,49.0,29.90,NNW,336,1.0,9.0,39,0.00,,---,0.15,VWS V14.01,2013-09-12 23:49:00,
2013-09-12 18:50:00,75.7,49.7,29.90,NNW,337,1.0,9.0,40,0.00,,---,0.15,VWS V14.01,2013-09-12 23:50:00,
2013-09-12 18:51:00,75.6,49.6,29.91,NE,40,0.0,9.0,40,0.00,,---,0.15,VWS V14.01,2013-09-12 23:51:00,
2013-09-12 18:52:00,75.5,49.5,29.90,NNW,337,1.0,9.0,40,0.00,,---,0.15,VWS V14.01,2013-09-12 23:52:00,
2013-09-12 18:54:00,75.3,50.0,29.91,North,5,2.0,9.0,41,0.00,,---,0.15,VWS V14.01,2013-09-12 23:54:00,
2013-09-12 18:55:00,75.1,49.2,29.90,West,278,0.0,9.0,40,0.00,,---,0.15,VWS V14.01,2013-09-12 23:55:00,
2013-09-12 18:56:00,75.0,49.7,29.90,NNE,15,2.0,9.0,41,0.00,,---,0.15,VWS V14.01,2013-09-12 23:56:00,
2013-09-12 18:57:00,74.9,49.6,29.91,NNE,15,0.0,9.0,41,0.00,,---,0.15,VWS V14.01,2013-09-12 23:57:00,
2013-09-12 18:58:00,74.8,49.5,29.91,NNE,15,0.0,9.0,41,0.00,,---,0.15,VWS V14.01,2013-09-12 23:58:00,
2013-09-12 18:59:00,74.6,49.4,29.91,NNE,15,0.0,9.0,41,0.00,,---,0.15,VWS V14.01,2013-09-12 23:59:00,
2013-09-12 19:00:00,74.6,49.4,29.91,NW,324,0.0,9.0,41,0.00,,---,0.15,VWS V14.01,2013-09-13 00:00:00,
2013-09-12 19:02:00,74.4,49.8,29.91,NW,325,1.0,1.0,42,0.00,,---,0.15,VWS V14.01,2013-09-13 00:02:00,
2013-09-12 19:03:00,74.3,49.8,29.91,NW,325,0.0,2.0,42,0.00,,---,0.15,VWS V14.01,2013-09-13 00:03:00,
2013-09-12 19:04:00,74.2,50.3,29.91,NW,325,0.0,2.0,43,0.00,,---,0.15,VWS V14.01,2013-09-13 00:04:00,
2013-09-12 19:05:00,74.1,50.2,29.91,NW,318,2.0,2.0,43,0.00,,---,0.15,VWS V14.01,2013-09-13 00:05:00,
2013-09-12 19:06:00,74.0,50.1,29.91,NW,318,0.0,2.0,43,0.00,,---,0.15,VWS V14.01,2013-09-13 00:06:00,
2013-09-12 19:07:00,73.7,50.5,29.91,NW,313,1.0,3.0,44,0.00,,---,0.15,VWS V14.01,2013-09-13 00:07:00,
2013-09-12 19:08:00,73.7,49.8,29.91,NW,313,0.0,3.0,43,0.00,,---,0.15,VWS V14.01,2013-09-13 00:08:00,
2013-09-12 19:10:00,73.3,50.1,29.91,NNW,340,0.0,3.0,44,0.00,,---,0.15,VWS V14.01,2013-09-13 00:10:00,
2013-09-12 19:11:00,73.2,50.6,29.91,NW,324,0.0,3.0,45,0.00,,---,0.15,VWS V14.01,2013-09-13 00:11:00,
2013-09-12 19:12:00,73.0,49.8,29.91,NW,324,0.0,3.0,44,0.00,,---,0.15,VWS V14.01,2013-09-13 00:12:00,
2013-09-12 19:13:00,72.9,50.3,29.91,NW,324,0.0,3.0,45,0.00,,---,0.15,VWS V14.01,2013-09-13 00:13:00,
2013-09-12 19:14:00,72.7,50.2,29.91,NW,324,0.0,3.0,45,0.00,,---,0.15,VWS V14.01,2013-09-13 00:14:00,
2013-09-12 19:15:00,72.6,50.7,29.91,NW,324,0.0,3.0,46,0.00,,---,0.15,VWS V14.01,2013-09-13 00:15:00,
2013-09-12 19:16:00,72.5,50.6,29.91,NW,324,1.0,3.0,46,0.00,,---,0.15,VWS V14.01,2013-09-13 00:16:00,
2013-09-12 19:17:00,72.3,50.4,29.92,North,355,0.0,4.0,46,0.00,,---,0.15,VWS V14.01,2013-09-13 00:17:00,
2013-09-12 19:18:00,72.2,50.3,29.92,North,355,0.0,4.0,46,0.00,,---,0.15,VWS V14.01,2013-09-13 00:18:00,
2013-09-12 19:20:00,71.9,50.6,29.92,WNW,300,0.0,4.0,47,0.00,,---,0.15,VWS V14.01,2013-09-13 00:20:00,
2013-09-12 19:21:00,71.9,50.6,29.92,WNW,300,0.0,4.0,47,0.00,,---,0.15,VWS V14.01,2013-09-13 00:21:00,
2013-09-12 19:23:00,71.6,50.9,29.92,WNW,300,0.0,4.0,48,0.00,,---,0.15,VWS V14.01,2013-09-13 00:23:00,
2013-09-12 19:24:00,71.4,50.7,29.92,WNW,300,0.0,4.0,48,0.00,,---,0.15,VWS V14.01,2013-09-13 00:24:00,
2013-09-12 19:25:00,71.2,51.1,29.92,WNW,300,0.0,4.0,49,0.00,,---,0.15,VWS V14.01,2013-09-13 00:25:00,
2013-09-12 19:26:00,71.1,51.0,29.92,WNW,300,0.0,4.0,49,0.00,,---,0.15,VWS V14.01,2013-09-13 00:26:00,
2013-09-12 19:27:00,71.0,50.9,29.92,WNW,300,1.0,4.0,49,0.00,,---,0.15,VWS V14.01,2013-09-13 00:27:00,
2013-09-12 19:28:00,70.8,51.3,29.92,WNW,300,0.0,4.0,50,0.00,,---,0.15,VWS V14.01,2013-09-13 00:28:00,
2013-09-12 19:30:00,70.5,51.5,29.92,WNW,300,0.0,4.0,51,0.00,,---,0.15,VWS V14.01,2013-09-13 00:30:00,
2013-09-12 19:31:00,70.4,51.4,29.92,WNW,300,0.0,1.0,51,0.00,,---,0.15,VWS V14.01,2013-09-13 00:31:00,
2013-09-12 19:32:00,70.2,51.2,29.92,WNW,300,0.0,1.0,51,0.00,,---,0.15,VWS V14.01,2013-09-13 00:32:00,
2013-09-12 19:33:00,70.0,51.1,29.92,WNW,300,1.0,1.0,51,0.00,,---,0.15,VWS V14.01,2013-09-13 00:33:00,
2013-09-12 19:34:00,69.9,51.0,29.92,WNW,300,0.0,1.0,51,0.00,,---,0.15,VWS V14.01,2013-09-13 00:34:00,
2013-09-12 19:36:00,69.6,51.2,29.92,WNW,300,1.0,1.0,52,0.00,,---,0.15,VWS V14.01,2013-09-13 00:36:00,
2013-09-12 19:37:00,69.5,51.6,29.92,WNW,300,1.0,1.0,53,0.00,,---,0.15,VWS V14.01,2013-09-13 00:37:00,
2013-09-12 19:38:00,69.3,51.5,29.92,WNW,300,0.0,1.0,53,0.00,,---,0.15,VWS V14.01,2013-09-13 00:38:00,
2013-09-12 19:39:00,69.1,51.8,29.92,WNW,300,1.0,1.0,54,0.00,,---,0.15,VWS V14.01,2013-09-13 00:39:00,
2013-09-12 19:41:00,68.9,51.6,29.92,WNW,300,1.0,2.0,54,0.00,,---,0.15,VWS V14.01,2013-09-13 00:41:00,
2013-09-12 19:42:00,68.8,51.5,29.92,WNW,300,0.0,2.0,54,0.00,,---,0.15,VWS V14.01,2013-09-13 00:42:00,
2013-09-12 19:43:00,68.7,51.9,29.92,NW,309,0.0,2.0,55,0.00,,---,0.15,VWS V14.01,2013-09-13 00:43:00,
2013-09-12 19:44:00,68.5,51.7,29.92,NW,309,1.0,2.0,55,0.00,,---,0.15,VWS V14.01,2013-09-13 00:44:00,
2013-09-12 19:46:00,68.4,52.1,29.92,NW,309,0.0,2.0,56,0.00,,---,0.15,VWS V14.01,2013-09-13 00:46:00,
2013-09-12 19:47:00,68.2,51.9,29.92,NW,309,0.0,2.0,56,0.00,,---,0.15,VWS V14.01,2013-09-13 00:47:00,
2013-09-12 19:48:00,68.0,52.2,29.92,NW,309,1.0,2.0,57,0.00,,---,0.15,VWS V14.01,2013-09-13 00:48:00,
2013-09-12 19:50:00,67.6,52.3,29.92,NW,309,0.0,2.0,58,0.00,,---,0.15,VWS V14.01,2013-09-13 00:50:00,
2013-09-12 19:51:00,67.5,52.2,29.92,NW,309,0.0,2.0,58,0.00,,---,0.15,VWS V14.01,2013-09-13 00:51:00,
2013-09-12 19:52:00,67.3,52.5,29.92,NW,309,1.0,2.0,59,0.00,,---,0.15,VWS V14.01,2013-09-13 00:52:00,
2013-09-12 19:53:00,67.1,52.8,29.92,NW,309,0.0,2.0,60,0.00,,---,0.15,VWS V14.01,2013-09-13 00:53:00,
2013-09-12 19:55:00,66.7,52.8,29.92,NW,309,0.0,2.0,61,0.00,,---,0.15,VWS V14.01,2013-09-13 00:55:00,
2013-09-12 19:56:00,66.7,52.8,29.92,NW,309,0.0,2.0,61,0.00,,---,0.15,VWS V14.01,2013-09-13 00:56:00,
2013-09-12 19:57:00,66.4,52.6,29.92,NW,309,0.0,2.0,61,0.00,,---,0.15,VWS V14.01,2013-09-13 00:57:00,
2013-09-12 19:58:00,66.3,52.9,29.92,NW,309,0.0,2.0,62,0.00,,---,0.15,VWS V14.01,2013-09-13 00:58:00,
2013-09-12 19:59:00,66.2,52.8,29.93,NW,309,0.0,2.0,62,0.00,,---,0.15,VWS V14.01,2013-09-13 00:59:00,
2013-09-12 20:01:00,66.0,52.6,29.92,NW,309,0.0,0.0,62,0.00,,---,0.15,VWS V14.01,2013-09-13 01:01:00,
2013-09-12 20:03:00,65.9,52.5,29.93,NW,309,0.0,0.0,62,0.00,,---,0.15,VWS V14.01,2013-09-13 01:03:00,
2013-09-12 20:05:00,65.7,52.3,29.93,NW,309,0.0,0.0,62,0.00,,---,0.15,VWS V14.01,2013-09-13 01:05:00,
2013-09-12 20:06:00,65.7,52.8,29.93,NW,309,0.0,1.0,63,0.00,,---,0.15,VWS V14.01,2013-09-13 01:06:00,
2013-09-12 20:08:00,65.7,52.3,29.93,NW,309,0.0,1.0,62,0.00,,---,0.15,VWS V14.01,2013-09-13 01:08:00,
2013-09-12 20:10:00,65.7,52.3,29.93,NW,309,0.0,1.0,62,0.00,,---,0.15,VWS V14.01,2013-09-13 01:10:00,
2013-09-12 20:11:00,65.7,52.3,29.93,NW,309,0.0,1.0,62,0.00,,---,0.15,VWS V14.01,2013-09-13 01:11:00,
2013-09-12 20:13:00,65.7,52.8,29.93,NW,309,0.0,1.0,63,0.00,,---,0.15,VWS V14.01,2013-09-13 01:13:00,
2013-09-12 20:14:00,65.7,52.8,29.93,NW,309,0.0,1.0,63,0.00,,---,0.15,VWS V14.01,2013-09-13 01:14:00,
2013-09-12 20:15:00,65.6,52.7,29.93,NW,309,0.0,1.0,63,0.00,,---,0.15,VWS V14.01,2013-09-13 01:15:00,
2013-09-12 20:16:00,65.6,52.7,29.93,NW,309,0.0,1.0,63,0.00,,---,0.15,VWS V14.01,2013-09-13 01:16:00,
2013-09-12 20:18:00,65.6,52.7,29.93,NW,309,0.0,1.0,63,0.00,,---,0.15,VWS V14.01,2013-09-13 01:18:00,
2013-09-12 20:19:00,65.6,52.7,29.93,NW,309,0.0,1.0,63,0.00,,---,0.15,VWS V14.01,2013-09-13 01:19:00,
2013-09-12 20:21:00,65.5,52.6,29.93,NW,309,0.0,1.0,63,0.00,,---,0.15,VWS V14.01,2013-09-13 01:21:00,
2013-09-12 20:23:00,65.4,52.5,29.93,NW,309,0.0,1.0,63,0.00,,---,0.15,VWS V14.01,2013-09-13 01:23:00,
2013-09-12 20:24:00,65.4,52.9,29.94,NW,309,0.0,1.0,64,0.00,,---,0.15,VWS V14.01,2013-09-13 01:24:00,
2013-09-12 20:25:00,65.3,52.4,29.94,NW,309,0.0,1.0,63,0.00,,---,0.15,VWS V14.01,2013-09-13 01:25:00,
2013-09-12 20:26:00,65.2,52.7,29.94,NW,309,0.0,1.0,64,0.00,,---,0.15,VWS V14.01,2013-09-13 01:26:00,
2013-09-12 20:27:00,65.2,52.7,29.94,NW,309,0.0,1.0,64,0.00,,---,0.15,VWS V14.01,2013-09-13 01:27:00,
2013-09-12 20:28:00,65.1,52.6,29.94,NW,309,0.0,1.0,64,0.00,,---,0.15,VWS V14.01,2013-09-13 01:28:00,
2013-09-12 20:29:00,65.0,52.5,29.94,NW,309,0.0,1.0,64,0.00,,---,0.15,VWS V14.01,2013-09-13 01:29:00,
2013-09-12 20:31:00,65.0,52.1,29.94,NW,309,0.0,0.0,63,0.00,,---,0.15,VWS V14.01,2013-09-13 01:31:00,
2013-09-12 20:32:00,64.9,52.5,29.94,NW,309,0.0,0.0,64,0.00,,---,0.15,VWS V14.01,2013-09-13 01:32:00,
2013-09-12 20:33:00,64.9,52.5,29.94,NW,309,0.0,0.0,64,0.00,,---,0.15,VWS V14.01,2013-09-13 01:33:00,
2013-09-12 20:34:00,64.9,52.5,29.94,NW,309,0.0,0.0,64,0.00,,---,0.15,VWS V14.01,2013-09-13 01:34:00,
2013-09-12 20:36:00,64.9,52.5,29.94,NW,309,0.0,0.0,64,0.00,,---,0.15,VWS V14.01,2013-09-13 01:36:00,
2013-09-12 20:37:00,64.8,52.3,29.94,NW,309,0.0,0.0,64,0.00,,---,0.15,VWS V14.01,2013-09-13 01:37:00,
2013-09-12 20:39:00,64.7,52.7,29.94,NW,309,0.0,1.0,65,0.00,,---,0.15,VWS V14.01,2013-09-13 01:39:00,
2013-09-12 20:41:00,64.7,52.7,29.94,NW,309,0.0,1.0,65,0.00,,---,0.15,VWS V14.01,2013-09-13 01:41:00,
2013-09-12 20:42:00,64.6,52.6,29.94,NW,309,0.0,1.0,65,0.00,,---,0.15,VWS V14.01,2013-09-13 01:42:00,
2013-09-12 20:43:00,64.6,52.6,29.94,NW,309,1.0,1.0,65,0.00,,---,0.15,VWS V14.01,2013-09-13 01:43:00,
2013-09-12 20:44:00,64.5,52.9,29.94,NW,309,1.0,2.0,66,0.00,,---,0.15,VWS V14.01,2013-09-13 01:44:00,
2013-09-12 20:46:00,64.5,52.9,29.94,NW,309,0.0,2.0,66,0.00,,---,0.15,VWS V14.01,2013-09-13 01:46:00,
2013-09-12 20:47:00,64.5,52.9,29.94,NW,309,0.0,2.0,66,0.00,,---,0.15,VWS V14.01,2013-09-13 01:47:00,
2013-09-12 20:49:00,64.2,53.0,29.94,NW,309,0.0,2.0,67,0.00,,---,0.15,VWS V14.01,2013-09-13 01:49:00,
2013-09-12 20:50:00,64.1,52.9,29.95,NW,309,0.0,2.0,67,0.00,,---,0.15,VWS V14.01,2013-09-13 01:50:00,
2013-09-12 20:51:00,64.0,52.8,29.94,NW,309,0.0,2.0,67,0.00,,---,0.15,VWS V14.01,2013-09-13 01:51:00,
2013-09-12 20:52:00,63.9,53.1,29.94,NW,309,0.0,2.0,68,0.00,,---,0.15,VWS V14.01,2013-09-13 01:52:00,
2013-09-12 20:54:00,63.6,52.9,29.94,NW,309,1.0,2.0,68,0.00,,---,0.15,VWS V14.01,2013-09-13 01:54:00,
2013-09-12 20:56:00,63.5,52.8,29.95,NW,309,0.0,2.0,68,0.00,,---,0.15,VWS V14.01,2013-09-13 01:56:00,
2013-09-12 20:58:00,63.4,52.7,29.95,NW,309,0.0,2.0,68,0.00,,---,0.15,VWS V14.01,2013-09-13 01:58:00,
2013-09-12 20:59:00,63.4,52.7,29.95,NW,309,0.0,2.0,68,0.00,,---,0.15,VWS V14.01,2013-09-13 01:59:00,
2013-09-12 21:01:00,63.3,52.6,29.95,NW,309,0.0,0.0,68,0.00,,---,0.15,VWS V14.01,2013-09-13 02:01:00,
2013-09-12 21:02:00,63.3,52.6,29.95,NW,309,0.0,0.0,68,0.00,,---,0.15,VWS V14.01,2013-09-13 02:02:00,
2013-09-12 21:04:00,63.2,52.9,29.95,NW,309,0.0,0.0,69,0.00,,---,0.15,VWS V14.01,2013-09-13 02:04:00,
2013-09-12 21:06:00,63.2,52.9,29.95,NW,309,0.0,0.0,69,0.00,,---,0.15,VWS V14.01,2013-09-13 02:06:00,
2013-09-12 21:07:00,63.1,52.8,29.95,NW,309,0.0,0.0,69,0.00,,---,0.15,VWS V14.01,2013-09-13 02:07:00,
2013-09-12 21:08:00,63.1,52.8,29.95,NW,309,0.0,0.0,69,0.00,,---,0.15,VWS V14.01,2013-09-13 02:08:00,
2013-09-12 21:09:00,63.1,52.8,29.95,NW,309,0.0,0.0,69,0.00,,---,0.15,VWS V14.01,2013-09-13 02:09:00,
2013-09-12 21:11:00,63.0,52.7,29.95,NW,309,0.0,0.0,69,0.00,,---,0.15,VWS V14.01,2013-09-13 02:11:00,
2013-09-12 21:13:00,62.9,52.6,29.95,NW,309,0.0,0.0,69,0.00,,---,0.15,VWS V14.01,2013-09-13 02:13:00,
2013-09-12 21:14:00,62.7,52.8,29.95,NW,309,0.0,0.0,70,0.00,,---,0.15,VWS V14.01,2013-09-13 02:14:00,
2013-09-12 21:15:00,62.7,52.8,29.95,NW,309,0.0,0.0,70,0.00,,---,0.15,VWS V14.01,2013-09-13 02:15:00,
2013-09-12 21:17:00,62.6,52.7,29.95,NW,309,0.0,0.0,70,0.00,,---,0.15,VWS V14.01,2013-09-13 02:17:00,
2013-09-12 21:18:00,62.5,52.6,29.95,NW,309,0.0,0.0,70,0.00,,---,0.15,VWS V14.01,2013-09-13 02:18:00,
2013-09-12 21:19:00,62.5,52.6,29.95,NW,309,0.0,0.0,70,0.00,,---,0.15,VWS V14.01,2013-09-13 02:19:00,
2013-09-12 21:20:00,62.5,52.6,29.95,NW,309,0.0,0.0,70,0.00,,---,0.15,VWS V14.01,2013-09-13 02:20:00,
2013-09-12 21:22:00,62.4,52.5,29.95,NW,309,0.0,0.0,70,0.00,,---,0.15,VWS V14.01,2013-09-13 02:22:00,
2013-09-12 21:23:00,62.4,52.5,29.95,NW,309,0.0,0.0,70,0.00,,---,0.15,VWS V14.01,2013-09-13 02:23:00,
2013-09-12 21:24:00,62.4,52.5,29.95,NW,309,0.0,0.0,70,0.00,,---,0.15,VWS V14.01,2013-09-13 02:24:00,
2013-09-12 21:25:00,62.4,52.5,29.95,NW,309,0.0,0.0,70,0.00,,---,0.15,VWS V14.01,2013-09-13 02:25:00,
2013-09-12 21:27:00,62.4,52.5,29.95,NW,309,0.0,0.0,70,0.00,,---,0.15,VWS V14.01,2013-09-13 02:27:00,
2013-09-12 21:28:00,62.3,52.4,29.95,NW,309,0.0,0.0,70,0.00,,---,0.15,VWS V14.01,2013-09-13 02:28:00,
2013-09-12 21:29:00,62.3,52.4,29.95,NW,309,0.0,1.0,70,0.00,,---,0.15,VWS V14.01,2013-09-13 02:29:00,
2013-09-12 21:30:00,62.3,52.4,29.95,NW,309,0.0,1.0,70,0.00,,---,0.15,VWS V14.01,2013-09-13 02:30:00,
2013-09-12 21:33:00,62.3,52.8,29.95,NW,309,0.0,0.0,71,0.00,,---,0.15,VWS V14.01,2013-09-13 02:33:00,
2013-09-12 21:34:00,62.2,52.3,29.95,NW,309,0.0,0.0,70,0.00,,---,0.15,VWS V14.01,2013-09-13 02:34:00,
2013-09-12 21:35:00,62.2,52.3,29.95,NW,309,0.0,0.0,70,0.00,,---,0.15,VWS V14.01,2013-09-13 02:35:00,
2013-09-12 21:36:00,62.2,52.3,29.95,NW,309,0.0,0.0,70,0.00,,---,0.15,VWS V14.01,2013-09-13 02:36:00,
2013-09-12 21:38:00,62.1,52.6,29.95,NW,309,0.0,0.0,71,0.00,,---,0.15,VWS V14.01,2013-09-13 02:38:00,
2013-09-12 21:39:00,62.0,52.5,29.96,NW,309,0.0,0.0,71,0.00,,---,0.15,VWS V14.01,2013-09-13 02:39:00,
2013-09-12 21:40:00,61.9,52.4,29.95,NW,309,0.0,0.0,71,0.00,,---,0.15,VWS V14.01,2013-09-13 02:40:00,
2013-09-12 21:41:00,61.9,52.4,29.95,NW,309,0.0,1.0,71,0.00,,---,0.15,VWS V14.01,2013-09-13 02:41:00,
2013-09-12 21:43:00,61.8,52.3,29.96,NW,309,0.0,1.0,71,0.00,,---,0.15,VWS V14.01,2013-09-13 02:43:00,
2013-09-12 21:44:00,61.8,52.3,29.96,NW,309,0.0,1.0,71,0.00,,---,0.15,VWS V14.01,2013-09-13 02:44:00,
2013-09-12 21:45:00,61.8,52.3,29.96,NW,309,0.0,1.0,71,0.00,,---,0.15,VWS V14.01,2013-09-13 02:45:00,
2013-09-12 21:46:00,61.7,52.2,29.96,NW,309,0.0,1.0,71,0.00,,---,0.15,VWS V14.01,2013-09-13 02:46:00,
2013-09-12 21:49:00,61.7,52.2,29.96,NW,309,0.0,1.0,71,0.00,,---,0.15,VWS V14.01,2013-09-13 02:49:00,
2013-09-12 21:50:00,61.7,52.2,29.96,NW,309,0.0,1.0,71,0.00,,---,0.15,VWS V14.01,2013-09-13 02:50:00,
2013-09-12 21:51:00,61.7,52.2,29.96,NW,309,0.0,1.0,71,0.00,,---,0.15,VWS V14.01,2013-09-13 02:51:00,
2013-09-12 21:54:00,61.6,52.5,29.96,NW,309,0.0,1.0,72,0.00,,---,0.15,VWS V14.01,2013-09-13 02:54:00,
2013-09-12 21:55:00,61.5,52.4,29.96,NW,309,0.0,1.0,72,0.00,,---,0.15,VWS V14.01,2013-09-13 02:55:00,
2013-09-12 21:56:00,61.4,52.3,29.96,NW,309,0.0,1.0,72,0.00,,---,0.15,VWS V14.01,2013-09-13 02:56:00,
2013-09-12 21:59:00,60.9,52.2,29.96,NW,309,0.0,1.0,73,0.00,,---,0.15,VWS V14.01,2013-09-13 02:59:00,
2013-09-12 22:00:00,60.9,52.2,29.96,NW,309,0.0,1.0,73,0.00,,---,0.15,VWS V14.01,2013-09-13 03:00:00,
2013-09-12 22:01:00,60.7,52.4,29.96,NW,309,0.0,0.0,74,0.00,,---,0.15,VWS V14.01,2013-09-13 03:01:00,
2013-09-12 22:04:00,60.3,52.3,29.96,NW,309,0.0,0.0,75,0.00,,---,0.15,VWS V14.01,2013-09-13 03:04:00,
2013-09-12 22:05:00,60.2,52.3,29.96,NW,309,0.0,0.0,75,0.00,,---,0.15,VWS V14.01,2013-09-13 03:05:00,
2013-09-12 22:06:00,60.0,52.1,29.96,NW,309,0.0,0.0,75,0.00,,---,0.15,VWS V14.01,2013-09-13 03:06:00,
2013-09-12 22:09:00,59.9,52.0,29.96,NW,309,0.0,2.0,75,0.00,,---,0.15,VWS V14.01,2013-09-13 03:09:00,
2013-09-12 22:10:00,59.8,51.9,29.96,NW,309,0.0,2.0,75,0.00,,---,0.15,VWS V14.01,2013-09-13 03:10:00,
2013-09-12 22:11:00,59.8,51.9,29.96,NW,309,0.0,2.0,75,0.00,,---,0.15,VWS V14.01,2013-09-13 03:11:00,
2013-09-12 22:14:00,59.9,52.0,29.97,NNE,24,1.0,2.0,75,0.00,,---,0.15,VWS V14.01,2013-09-13 03:14:00,
2013-09-12 22:15:00,60.0,52.1,29.96,NNE,24,0.0,2.0,75,0.00,,---,0.15,VWS V14.01,2013-09-13 03:15:00,
2013-09-12 22:16:00,60.0,52.1,29.96,NNE,24,0.0,2.0,75,0.00,,---,0.15,VWS V14.01,2013-09-13 03:16:00,
2013-09-12 22:19:00,60.4,52.1,29.97,NNE,24,0.0,2.0,74,0.00,,---,0.15,VWS V14.01,2013-09-13 03:19:00,
2013-09-12 22:20:00,60.4,52.1,29.97,NNE,24,0.0,2.0,74,0.00,,---,0.15,VWS V14.01,2013-09-13 03:20:00,
2013-09-12 22:21:00,60.5,51.8,29.97,NNE,24,0.0,2.0,73,0.00,,---,0.15,VWS V14.01,2013-09-13 03:21:00,
2013-09-12 22:22:00,60.5,51.8,29.97,NNE,24,0.0,2.0,73,0.00,,---,0.15,VWS V14.01,2013-09-13 03:22:00,
2013-09-12 22:25:00,60.7,52.0,29.97,NNE,24,0.0,2.0,73,0.00,,---,0.15,VWS V14.01,2013-09-13 03:25:00,
2013-09-12 22:26:00,60.7,52.0,29.97,NNE,24,0.0,2.0,73,0.00,,---,0.15,VWS V14.01,2013-09-13 03:26:00,
2013-09-12 22:27:00,60.7,51.6,29.97,NNE,24,1.0,2.0,72,0.00,,---,0.15,VWS V14.01,2013-09-13 03:27:00,
2013-09-12 22:28:00,60.8,51.7,29.97,NNE,24,0.0,2.0,72,0.00,,---,0.15,VWS V14.01,2013-09-13 03:28:00,
2013-09-12 22:30:00,60.9,51.8,29.97,NNE,24,0.0,2.0,72,0.00,,---,0.15,VWS V14.01,2013-09-13 03:30:00,
2013-09-12 22:31:00,60.9,51.8,29.97,NNE,24,0.0,0.0,72,0.00,,---,0.15,VWS V14.01,2013-09-13 03:31:00,
2013-09-12 22:32:00,61.1,52.0,29.97,NNE,27,0.0,2.0,72,0.00,,---,0.15,VWS V14.01,2013-09-13 03:32:00,
2013-09-12 22:33:00,61.1,52.0,29.97,NNE,27,0.0,2.0,72,0.00,,---,0.15,VWS V14.01,2013-09-13 03:33:00,
2013-09-12 22:34:00,61.1,52.0,29.97,NNE,25,0.0,2.0,72,0.00,,---,0.15,VWS V14.01,2013-09-13 03:34:00,
2013-09-12 22:35:00,61.2,52.1,29.97,NNE,25,0.0,2.0,72,0.00,,---,0.15,VWS V14.01,2013-09-13 03:35:00,
2013-09-12 22:36:00,61.2,52.1,29.97,NNE,25,1.0,2.0,72,0.00,,---,0.15,VWS V14.01,2013-09-13 03:36:00,
2013-09-12 22:37:00,61.2,51.7,29.97,NNE,25,0.0,2.0,71,0.00,,---,0.15,VWS V14.01,2013-09-13 03:37:00,
2013-09-12 22:38:00,61.2,52.1,29.97,NNE,31,0.0,3.0,72,0.00,,---,0.15,VWS V14.01,2013-09-13 03:38:00,
2013-09-12 22:39:00,61.3,52.2,29.97,NNE,31,0.0,3.0,72,0.00,,---,0.15,VWS V14.01,2013-09-13 03:39:00,
2013-09-12 22:40:00,61.3,52.2,29.97,NNE,31,0.0,3.0,72,0.00,,---,0.15,VWS V14.01,2013-09-13 03:40:00,
2013-09-12 22:41:00,61.3,52.2,29.97,NNE,31,0.0,3.0,72,0.00,,---,0.15,VWS V14.01,2013-09-13 03:41:00,
2013-09-12 22:42:00,61.3,52.2,29.97,NNE,31,0.0,3.0,72,0.00,,---,0.15,VWS V14.01,2013-09-13 03:42:00,
2013-09-12 22:43:00,61.3,52.2,29.97,NNE,31,0.0,3.0,72,0.00,,---,0.15,VWS V14.01,2013-09-13 03:43:00,
2013-09-12 22:44:00,61.3,51.8,29.96,NNE,31,0.0,3.0,71,0.00,,---,0.15,VWS V14.01,2013-09-13 03:44:00,
2013-09-12 22:45:00,61.3,51.8,29.97,NNE,31,0.0,3.0,71,0.00,,---,0.15,VWS V14.01,2013-09-13 03:45:00,
2013-09-12 22:46:00,61.3,51.8,29.97,NNE,31,0.0,3.0,71,0.00,,---,0.15,VWS V14.01,2013-09-13 03:46:00,
2013-09-12 22:47:00,61.3,51.8,29.97,NNE,31,0.0,3.0,71,0.00,,---,0.15,VWS V14.01,2013-09-13 03:47:00,
2013-09-12 22:48:00,61.3,51.8,29.97,NNE,31,0.0,3.0,71,0.00,,---,0.15,VWS V14.01,2013-09-13 03:48:00,
2013-09-12 22:49:00,61.3,51.8,29.97,NNE,31,0.0,3.0,71,0.00,,---,0.15,VWS V14.01,2013-09-13 03:49:00,
2013-09-12 22:50:00,61.3,51.8,29.97,NNE,31,0.0,3.0,71,0.00,,---,0.15,VWS V14.01,2013-09-13 03:50:00,
2013-09-12 22:51:00,61.3,51.8,29.97,NNE,31,0.0,3.0,71,0.00,,---,0.15,VWS V14.01,2013-09-13 03:51:00,
2013-09-12 22:52:00,61.3,51.8,29.97,NNE,31,0.0,3.0,71,0.00,,---,0.15,VWS V14.01,2013-09-13 03:52:00,
2013-09-12 22:53:00,61.3,51.8,29.97,NNE,31,0.0,3.0,71,0.00,,---,0.15,VWS V14.01,2013-09-13 03:53:00,
2013-09-12 22:55:00,61.4,51.9,29.97,NNE,31,0.0,3.0,71,0.00,,---,0.15,VWS V14.01,2013-09-13 03:55:00,
2013-09-12 22:56:00,61.4,51.5,29.97,NNE,15,2.0,3.0,70,0.00,,---,0.15,VWS V14.01,2013-09-13 03:56:00,
2013-09-12 22:57:00,61.4,51.5,29.97,NNE,15,0.0,3.0,70,0.00,,---,0.15,VWS V14.01,2013-09-13 03:57:00,
2013-09-12 22:58:00,61.5,51.6,29.97,NNE,15,0.0,3.0,70,0.00,,---,0.15,VWS V14.01,2013-09-13 03:58:00,
2013-09-12 23:00:00,61.5,51.6,29.97,North,9,0.0,3.0,70,0.00,,---,0.15,VWS V14.01,2013-09-13 04:00:00,
2013-09-12 23:01:00,61.5,51.6,29.97,North,9,0.0,0.0,70,0.00,,---,0.15,VWS V14.01,2013-09-13 04:01:00,
2013-09-12 23:02:00,61.5,51.6,29.97,North,9,0.0,0.0,70,0.00,,---,0.15,VWS V14.01,2013-09-13 04:02:00,
2013-09-12 23:06:00,61.6,51.7,29.97,North,9,0.0,1.0,70,0.00,,---,0.15,VWS V14.01,2013-09-13 04:06:00,
2013-09-12 23:07:00,61.5,51.6,29.97,North,9,0.0,1.0,70,0.00,,---,0.15,VWS V14.01,2013-09-13 04:07:00,
2013-09-12 23:11:00,61.4,51.5,29.97,North,9,0.0,1.0,70,0.00,,---,0.15,VWS V14.01,2013-09-13 04:11:00,
2013-09-12 23:12:00,61.4,51.5,29.97,North,9,0.0,1.0,70,0.00,,---,0.15,VWS V14.01,2013-09-13 04:12:00,
2013-09-12 23:13:00,61.4,51.5,29.97,North,9,0.0,1.0,70,0.00,,---,0.15,VWS V14.01,2013-09-13 04:13:00,
2013-09-12 23:16:00,61.3,51.8,29.97,North,9,0.0,1.0,71,0.00,,---,0.15,VWS V14.01,2013-09-13 04:16:00,
2013-09-12 23:18:00,61.2,51.7,29.98,North,9,0.0,1.0,71,0.00,,---,0.15,VWS V14.01,2013-09-13 04:18:00,
2013-09-12 23:21:00,61.1,51.6,29.97,North,9,0.0,1.0,71,0.00,,---,0.15,VWS V14.01,2013-09-13 04:21:00,
2013-09-12 23:22:00,61.1,51.6,29.98,North,5,0.0,1.0,71,0.00,,---,0.15,VWS V14.01,2013-09-13 04:22:00,
2013-09-12 23:23:00,61.0,51.5,29.97,North,5,0.0,1.0,71,0.00,,---,0.15,VWS V14.01,2013-09-13 04:23:00,
2013-09-12 23:26:00,60.9,51.5,29.98,NNE,19,0.0,2.0,71,0.00,,---,0.15,VWS V14.01,2013-09-13 04:26:00,
2013-09-12 23:27:00,60.9,51.5,29.97,NNE,19,0.0,2.0,71,0.00,,---,0.15,VWS V14.01,2013-09-13 04:27:00,
2013-09-12 23:28:00,60.9,51.5,29.98,NNE,19,1.0,2.0,71,0.00,,---,0.15,VWS V14.01,2013-09-13 04:28:00,
2013-09-12 23:29:00,60.9,51.5,29.97,NNE,19,0.0,2.0,71,0.00,,---,0.15,VWS V14.01,2013-09-13 04:29:00,
2013-09-12 23:31:00,60.9,51.5,29.98,NNE,19,0.0,0.0,71,0.00,,---,0.15,VWS V14.01,2013-09-13 04:31:00,
2013-09-12 23:32:00,60.8,51.3,29.98,North,5,0.0,1.0,71,0.00,,---,0.15,VWS V14.01,2013-09-13 04:32:00,
2013-09-12 23:33:00,60.9,51.5,29.98,North,5,0.0,1.0,71,0.00,,---,0.15,VWS V14.01,2013-09-13 04:33:00,
2013-09-12 23:34:00,60.9,51.5,29.98,North,5,0.0,1.0,71,0.00,,---,0.15,VWS V14.01,2013-09-13 04:34:00,
2013-09-12 23:36:00,60.9,51.5,29.98,NW,312,0.0,2.0,71,0.00,,---,0.15,VWS V14.01,2013-09-13 04:36:00,
2013-09-12 23:37:00,60.9,51.5,29.98,NW,325,0.0,2.0,71,0.00,,---,0.15,VWS V14.01,2013-09-13 04:37:00,
2013-09-12 23:38:00,60.9,51.5,29.98,NW,325,0.0,2.0,71,0.00,,---,0.15,VWS V14.01,2013-09-13 04:38:00,
2013-09-12 23:39:00,60.9,51.5,29.98,NNW,336,3.0,3.0,71,0.00,,---,0.15,VWS V14.01,2013-09-13 04:39:00,
2013-09-12 23:40:00,60.9,51.5,29.97,North,350,0.0,3.0,71,0.00,,---,0.15,VWS V14.01,2013-09-13 04:40:00,
2013-09-12 23:41:00,60.9,51.5,29.98,NNW,347,0.0,3.0,71,0.00,,---,0.15,VWS V14.01,2013-09-13 04:41:00,
2013-09-12 23:42:00,60.9,51.5,29.98,NNW,347,0.0,3.0,71,0.00,,---,0.15,VWS V14.01,2013-09-13 04:42:00,
2013-09-12 23:43:00,60.9,51.5,29.98,NNW,347,0.0,3.0,71,0.00,,---,0.15,VWS V14.01,2013-09-13 04:43:00,
2013-09-12 23:45:00,60.9,51.5,29.98,NNW,347,0.0,3.0,71,0.00,,---,0.15,VWS V14.01,2013-09-13 04:45:00,
2013-09-12 23:46:00,60.9,51.5,29.97,NNW,347,0.0,3.0,71,0.00,,---,0.15,VWS V14.01,2013-09-13 04:46:00,
2013-09-12 23:47:00,60.9,51.5,29.97,NNW,347,0.0,3.0,71,0.00,,---,0.15,VWS V14.01,2013-09-13 04:47:00,
2013-09-12 23:49:00,60.9,51.5,29.98,NNW,337,0.0,3.0,71,0.00,,---,0.15,VWS V14.01,2013-09-13 04:49:00,
2013-09-12 23:50:00,60.9,51.5,29.98,NNW,342,0.0,3.0,71,0.00,,---,0.15,VWS V14.01,2013-09-13 04:50:00,
2013-09-12 23:51:00,60.9,51.5,29.98,NNW,342,0.0,3.0,71,0.00,,---,0.15,VWS V14.01,2013-09-13 04:51:00,
2013-09-12 23:52:00,60.9,51.5,29.98,NNW,342,0.0,3.0,71,0.00,,---,0.15,VWS V14.01,2013-09-13 04:52:00,
2013-09-12 23:53:00,60.9,51.5,29.98,NNW,342,0.0,3.0,71,0.00,,---,0.15,VWS V14.01,2013-09-13 04:53:00,
2013-09-12 23:54:00,60.9,51.5,29.98,NNW,342,0.0,3.0,71,0.00,,---,0.15,VWS V14.01,2013-09-13 04:54:00,
2013-09-12 23:55:00,60.9,51.5,29.98,NNW,342,0.0,3.0,71,0.00,,---,0.15,VWS V14.01,2013-09-13 04:55:00,
2013-09-12 23:56:00,60.9,51.5,29.97,NW,326,0.0,3.0,71,0.00,,---,0.15,VWS V14.01,2013-09-13 04:56:00,
2013-09-12 23:57:00,60.9,51.5,29.97,NW,326,0.0,3.0,71,0.00,,---,0.15,VWS V14.01,2013-09-13 04:57:00,
2013-09-12 23:58:00,60.9,51.5,29.97,NW,326,0.0,3.0,71,0.00,,---,0.15,VWS V14.01,2013-09-13 04:58:00,